Wetterdaten: Donnerstag, 24.02.2022
Datum Zeit Temp. Aussen Temp. o. S. Temp +5cm Feuchte Auss Luftdruck Regen Sonnenschein Regendauer Solar Windben Empfang
24.02.2022 00:00 8,3 C 7,2 C 3,9 C 78 % 1019,0 hPa 0,0 l/m 0 min 0 min 0 W/m 12,9 km/h (3 Bft) 73,08 %
24.02.2022 00:02 8,3 C 7,2 C 3,9 C 78 % 1018,9 hPa 0,0 l/m 0 min 0 min 0 W/m 12,9 km/h (3 Bft) 95,45 %
24.02.2022 00:04 8,3 C 7,2 C 3,9 C 78 % 1018,9 hPa 0,0 l/m 0 min 0 min 0 W/m 12,9 km/h (3 Bft) 95,35 %
24.02.2022 00:08 8,3 C 7,2 C 3,9 C 78 % 1018,8 hPa 0,0 l/m 0 min 0 min 0 W/m 16,1 km/h (3 Bft) 99,00 %
24.02.2022 00:10 8,3 C 7,2 C 3,9 C 78 % 1018,8 hPa 0,0 l/m 0 min 0 min 0 W/m 6,4 km/h (2 Bft) 100,00 %
24.02.2022 00:12 8,2 C 7,2 C 3,9 C 78 % 1018,8 hPa 0,0 l/m 0 min 0 min 0 W/m 9,7 km/h (2 Bft) 100,00 %
24.02.2022 00:14 8,2 C 7,2 C 3,9 C 78 % 1018,8 hPa 0,0 l/m 0 min 0 min 0 W/m 12,9 km/h (3 Bft) 97,87 %
24.02.2022 00:16 8,2 C 7,2 C 3,9 C 79 % 1018,8 hPa 0,0 l/m 0 min 0 min 0 W/m 16,1 km/h (3 Bft) 95,74 %
24.02.2022 00:18 8,2 C 7,2 C 3,9 C 79 % 1018,8 hPa 0,0 l/m 0 min 0 min 0 W/m 12,9 km/h (3 Bft) 97,83 %
24.02.2022 00:20 8,2 C 7,2 C 3,9 C 79 % 1018,8 hPa 0,0 l/m 0 min 0 min 0 W/m 12,9 km/h (3 Bft) 97,87 %
24.02.2022 00:22 8,2 C 7,2 C 3,9 C 79 % 1018,6 hPa 0,0 l/m 0 min 0 min 0 W/m 19,3 km/h (3 Bft) 96,30 %
24.02.2022 00:24 8,2 C 7,2 C 3,9 C 79 % 1018,7 hPa 0,0 l/m 0 min 0 min 0 W/m 12,9 km/h (3 Bft) 97,87 %
24.02.2022 00:26 8,2 C 7,2 C 3,9 C 79 % 1018,7 hPa 0,0 l/m 0 min 0 min 0 W/m 12,9 km/h (3 Bft) 97,37 %
24.02.2022 00:28 8,2 C 7,2 C 3,9 C 79 % 1018,7 hPa 0,0 l/m 0 min 0 min 0 W/m 6,4 km/h (2 Bft) 97,96 %
24.02.2022 00:30 8,2 C 7,2 C 3,9 C 79 % 1018,6 hPa 0,0 l/m 0 min 0 min 0 W/m 16,1 km/h (3 Bft) 97,83 %
24.02.2022 00:32 8,1 C 7,2 C 3,9 C 79 % 1018,6 hPa 0,0 l/m 0 min 0 min 0 W/m 12,9 km/h (3 Bft) 97,87 %
24.02.2022 00:34 8,2 C 7,2 C 3,9 C 79 % 1018,6 hPa 0,0 l/m 0 min 0 min 0 W/m 12,9 km/h (3 Bft) 98,15 %
24.02.2022 00:36 8,2 C 7,2 C 3,9 C 80 % 1018,5 hPa 0,0 l/m 0 min 0 min 0 W/m 12,9 km/h (3 Bft) 97,37 %
24.02.2022 00:38 8,2 C 7,2 C 3,9 C 80 % 1018,5 hPa 0,0 l/m 0 min 0 min 0 W/m 22,5 km/h (4 Bft) 97,87 %
24.02.2022 00:40 8,2 C 7,2 C 3,9 C 80 % 1018,4 hPa 0,0 l/m 0 min 0 min 0 W/m 16,1 km/h (3 Bft) 97,96 %
24.02.2022 00:42 8,2 C 7,2 C 3,9 C 80 % 1018,5 hPa 0,0 l/m 0 min 0 min 0 W/m 12,9 km/h (3 Bft) 97,83 %
24.02.2022 00:44 8,2 C 7,2 C 3,9 C 80 % 1018,4 hPa 0,0 l/m 0 min 0 min 0 W/m 12,9 km/h (3 Bft) 96,30 %
24.02.2022 00:46 8,2 C 7,2 C 3,9 C 79 % 1018,4 hPa 0,0 l/m 0 min 0 min 0 W/m 9,7 km/h (2 Bft) 95,74 %
24.02.2022 00:48 8,2 C 7,2 C 3,9 C 80 % 1018,3 hPa 0,0 l/m 0 min 0 min 0 W/m 16,1 km/h (3 Bft) 100,00 %
24.02.2022 00:50 8,2 C 7,2 C 3,9 C 80 % 1018,3 hPa 0,0 l/m 0 min 0 min 0 W/m 12,9 km/h (3 Bft) 95,92 %
24.02.2022 00:52 8,2 C 7,2 C 3,9 C 80 % 1018,3 hPa 0,0 l/m 0 min 0 min 0 W/m 9,7 km/h (2 Bft) 97,87 %
24.02.2022 00:54 8,2 C 7,2 C 3,9 C 80 % 1018,2 hPa 0,0 l/m 0 min 0 min 0 W/m 9,7 km/h (2 Bft) 98,11 %
24.02.2022 00:56 8,2 C 7,2 C 3,9 C 80 % 1018,2 hPa 0,0 l/m 0 min 0 min 0 W/m 19,3 km/h (3 Bft) 97,37 %
24.02.2022 00:58 8,1 C 7,2 C 3,9 C 80 % 1018,2 hPa 0,0 l/m 0 min 0 min 0 W/m 9,7 km/h (2 Bft) 100,00 %
24.02.2022 01:00 8,1 C 7,2 C 3,9 C 80 % 1018,1 hPa 0,0 l/m 0 min 0 min 0 W/m 12,9 km/h (3 Bft) 100,00 %
24.02.2022 01:02 8,1 C 7,2 C 3,9 C 80 % 1018,1 hPa 0,0 l/m 0 min 0 min 0 W/m 16,1 km/h (3 Bft) 97,87 %
24.02.2022 01:04 8,2 C 7,2 C 3,9 C 80 % 1018,1 hPa 0,0 l/m 0 min 0 min 0 W/m 12,9 km/h (3 Bft) 100,00 %
24.02.2022 01:06 8,1 C 7,2 C 3,9 C 80 % 1018,1 hPa 0,0 l/m 0 min 0 min 0 W/m 12,9 km/h (3 Bft) 100,00 %
24.02.2022 01:08 8,1 C 7,2 C 3,9 C 80 % 1018,1 hPa 0,0 l/m 0 min 0 min 0 W/m 16,1 km/h (3 Bft) 100,00 %
24.02.2022 01:10 8,1 C 7,2 C 3,9 C 80 % 1018,0 hPa 0,0 l/m 0 min 0 min 0 W/m 16,1 km/h (3 Bft) 97,87 %
24.02.2022 01:12 8,1 C 7,2 C 3,9 C 80 % 1018,0 hPa 0,0 l/m 0 min 0 min 0 W/m 9,7 km/h (2 Bft) 97,14 %
24.02.2022 01:14 8,1 C 7,2 C 3,9 C 80 % 1018,0 hPa 0,0 l/m 0 min 0 min 0 W/m 16,1 km/h (3 Bft) 98,15 %
24.02.2022 01:16 8,1 C 7,2 C 3,9 C 81 % 1018,0 hPa 0,0 l/m 0 min 0 min 0 W/m 12,9 km/h (3 Bft) 95,92 %
24.02.2022 01:18 8,1 C 7,2 C 3,9 C 81 % 1017,9 hPa 0,0 l/m 0 min 0 min 0 W/m 9,7 km/h (2 Bft) 97,96 %
24.02.2022 01:20 8,1 C 7,2 C 3,9 C 81 % 1017,9 hPa 0,0 l/m 0 min 0 min 0 W/m 6,4 km/h (2 Bft) 97,14 %
24.02.2022 01:22 8,1 C 7,2 C 3,9 C 81 % 1017,9 hPa 0,0 l/m 0 min 0 min 0 W/m 16,1 km/h (3 Bft) 97,87 %
24.02.2022 01:24 8,1 C 7,2 C 3,9 C 81 % 1017,9 hPa 0,0 l/m 0 min 0 min 0 W/m 12,9 km/h (3 Bft) 96,30 %
24.02.2022 01:26 8,1 C 7,2 C 3,9 C 81 % 1017,8 hPa 0,0 l/m 0 min 0 min 0 W/m 12,9 km/h (3 Bft) 94,00 %
24.02.2022 01:28 8,1 C 7,2 C 3,9 C 81 % 1017,7 hPa 0,0 l/m 0 min 0 min 0 W/m 12,9 km/h (3 Bft) 97,92 %
24.02.2022 01:30 8,1 C 7,2 C 3,9 C 81 % 1017,7 hPa 0,0 l/m 0 min 0 min 0 W/m 9,7 km/h (2 Bft) 94,29 %
24.02.2022 01:32 8,1 C 7,2 C 3,9 C 81 % 1017,7 hPa 0,0 l/m 0 min 0 min 0 W/m 19,3 km/h (3 Bft) 96,30 %
24.02.2022 01:34 8,1 C 7,2 C 3,9 C 81 % 1017,7 hPa 0,0 l/m 0 min 0 min 0 W/m 12,9 km/h (3 Bft) 93,62 %
24.02.2022 01:36 8,1 C 7,2 C 3,9 C 81 % 1017,7 hPa 0,0 l/m 0 min 0 min 0 W/m 12,9 km/h (3 Bft) 96,00 %
24.02.2022 01:38 8,1 C 7,2 C 3,9 C 81 % 1017,7 hPa 0,0 l/m 0 min 0 min 0 W/m 12,9 km/h (3 Bft) 93,48 %
24.02.2022 01:40 8,1 C 7,2 C 3,9 C 81 % 1017,7 hPa 0,0 l/m 0 min 0 min 0 W/m 9,7 km/h (2 Bft) 95,92 %
24.02.2022 01:42 8,1 C 7,2 C 3,9 C 81 % 1017,7 hPa 0,0 l/m 0 min 0 min 0 W/m 19,3 km/h (3 Bft) 94,29 %
24.02.2022 01:44 8,1 C 7,2 C 3,9 C 81 % 1017,7 hPa 0,0 l/m 0 min 0 min 0 W/m 9,7 km/h (2 Bft) 90,74 %
24.02.2022 01:46 8,1 C 7,2 C 3,9 C 81 % 1017,7 hPa 0,0 l/m 0 min 0 min 0 W/m 6,4 km/h (2 Bft) 93,62 %
24.02.2022 01:48 8,1 C 7,2 C 3,9 C 81 % 1017,7 hPa 0,0 l/m 0 min 0 min 0 W/m 19,3 km/h (3 Bft) 94,00 %
24.02.2022 01:50 8,1 C 7,2 C 3,9 C 81 % 1017,6 hPa 0,0 l/m 0 min 0 min 0 W/m 16,1 km/h (3 Bft) 95,83 %
24.02.2022 01:52 8,1 C 7,2 C 3,9 C 81 % 1017,6 hPa 0,0 l/m 0 min 0 min 0 W/m 12,9 km/h (3 Bft) 97,22 %
24.02.2022 01:54 8,1 C 7,2 C 3,9 C 81 % 1017,6 hPa 0,0 l/m 0 min 0 min 0 W/m 12,9 km/h (3 Bft) 94,34 %
24.02.2022 01:56 8,1 C 7,2 C 3,9 C 81 % 1017,6 hPa 0,0 l/m 0 min 0 min 0 W/m 16,1 km/h (3 Bft) 96,00 %
24.02.2022 01:58 8,1 C 7,2 C 3,9 C 81 % 1017,6 hPa 0,0 l/m 0 min 0 min 0 W/m 12,9 km/h (3 Bft) 96,00 %
24.02.2022 02:00 8,1 C 7,2 C 3,9 C 81 % 1017,5 hPa 0,0 l/m 0 min 0 min 0 W/m 16,1 km/h (3 Bft) 97,30 %
24.02.2022 02:02 8,1 C 7,2 C 3,9 C 81 % 1017,5 hPa 0,0 l/m 0 min 0 min 0 W/m 9,7 km/h (2 Bft) 98,00 %
24.02.2022 02:04 8,1 C 7,2 C 3,9 C 81 % 1017,5 hPa 0,0 l/m 0 min 0 min 0 W/m 12,9 km/h (3 Bft) 100,00 %
24.02.2022 02:06 8,1 C 7,2 C 3,9 C 81 % 1017,5 hPa 0,0 l/m 0 min 0 min 0 W/m 6,4 km/h (2 Bft) 100,00 %
24.02.2022 02:08 8,1 C 7,2 C 3,9 C 81 % 1017,5 hPa 0,0 l/m 0 min 0 min 0 W/m 12,9 km/h (3 Bft) 100,00 %
24.02.2022 02:10 8,1 C 7,2 C 3,9 C 81 % 1017,4 hPa 0,0 l/m 0 min 0 min 0 W/m 12,9 km/h (3 Bft) 100,00 %
24.02.2022 02:12 8,1 C 7,2 C 3,9 C 81 % 1017,4 hPa 0,0 l/m 0 min 0 min 0 W/m 6,4 km/h (2 Bft) 100,00 %
24.02.2022 02:14 8,1 C 7,2 C 3,9 C 81 % 1017,4 hPa 0,0 l/m 0 min 0 min 0 W/m 9,7 km/h (2 Bft) 100,00 %
24.02.2022 02:16 8,1 C 7,2 C 3,9 C 81 % 1017,4 hPa 0,0 l/m 0 min 0 min 0 W/m 6,4 km/h (2 Bft) 100,00 %
24.02.2022 02:18 8,1 C 7,2 C 3,9 C 81 % 1017,3 hPa 0,0 l/m 0 min 0 min 0 W/m 9,7 km/h (2 Bft) 100,00 %
24.02.2022 02:20 8,1 C 7,2 C 3,9 C 81 % 1017,3 hPa 0,0 l/m 0 min 0 min 0 W/m 6,4 km/h (2 Bft) 100,00 %
24.02.2022 02:22 8,0 C 7,2 C 3,9 C 81 % 1017,3 hPa 0,0 l/m 0 min 0 min 0 W/m 9,7 km/h (2 Bft) 100,00 %
24.02.2022 02:24 8,0 C 7,2 C 3,9 C 81 % 1017,3 hPa 0,0 l/m 0 min 0 min 0 W/m 12,9 km/h (3 Bft) 100,00 %
24.02.2022 02:26 8,0 C 7,2 C 3,9 C 81 % 1017,2 hPa 0,0 l/m 0 min 0 min 0 W/m 6,4 km/h (2 Bft) 100,00 %
24.02.2022 02:28 8,0 C 7,2 C 3,9 C 81 % 1017,2 hPa 0,0 l/m 0 min 0 min 0 W/m 9,7 km/h (2 Bft) 100,00 %
24.02.2022 02:30 8,0 C 7,2 C 3,9 C 81 % 1017,2 hPa 0,0 l/m 0 min 0 min 0 W/m 9,7 km/h (2 Bft) 100,00 %
24.02.2022 02:32 8,0 C 7,2 C 3,9 C 81 % 1017,2 hPa 0,0 l/m 0 min 0 min 0 W/m 12,9 km/h (3 Bft) 98,00 %
24.02.2022 02:34 7,9 C 7,2 C 3,9 C 81 % 1017,2 hPa 0,0 l/m 0 min 0 min 0 W/m 6,4 km/h (2 Bft) 100,00 %
24.02.2022 02:36 7,9 C 7,2 C 3,9 C 81 % 1017,1 hPa 0,0 l/m 0 min 0 min 0 W/m 6,4 km/h (2 Bft) 97,87 %
24.02.2022 02:38 7,9 C 7,2 C 3,9 C 81 % 1017,1 hPa 0,0 l/m 0 min 0 min 0 W/m 6,4 km/h (2 Bft) 100,00 %
24.02.2022 02:40 7,9 C 7,2 C 3,9 C 81 % 1017,1 hPa 0,0 l/m 0 min 0 min 0 W/m 12,9 km/h (3 Bft) 97,87 %
24.02.2022 02:42 7,9 C 7,2 C 3,9 C 81 % 1017,1 hPa 0,0 l/m 0 min 0 min 0 W/m 16,1 km/h (3 Bft) 100,00 %
24.02.2022 02:44 7,9 C 7,2 C 3,9 C 81 % 1017,1 hPa 0,0 l/m 0 min 0 min 0 W/m 6,4 km/h (2 Bft) 97,87 %
24.02.2022 02:46 7,9 C 7,2 C 3,9 C 81 % 1017,0 hPa 0,0 l/m 0 min 0 min 0 W/m 16,1 km/h (3 Bft) 97,62 %
24.02.2022 02:48 7,9 C 7,2 C 3,9 C 81 % 1016,9 hPa 0,0 l/m 0 min 0 min 0 W/m 9,7 km/h (2 Bft) 97,87 %
24.02.2022 02:50 7,9 C 7,2 C 3,9 C 81 % 1016,9 hPa 0,0 l/m 0 min 0 min 0 W/m 6,4 km/h (2 Bft) 97,96 %
24.02.2022 02:52 7,9 C 7,2 C 3,9 C 81 % 1016,9 hPa 0,0 l/m 0 min 0 min 0 W/m 9,7 km/h (2 Bft) 97,96 %
24.02.2022 02:54 7,9 C 7,2 C 3,9 C 81 % 1016,8 hPa 0,0 l/m 0 min 0 min 0 W/m 12,9 km/h (3 Bft) 97,87 %
24.02.2022 02:56 7,8 C 7,2 C 3,9 C 81 % 1016,7 hPa 0,0 l/m 0 min 0 min 0 W/m 12,9 km/h (3 Bft) 97,87 %
24.02.2022 02:58 7,8 C 7,2 C 3,9 C 81 % 1016,7 hPa 0,0 l/m 0 min 0 min 0 W/m 9,7 km/h (2 Bft) 97,37 %
24.02.2022 03:00 7,8 C 7,2 C 3,9 C 81 % 1016,7 hPa 0,0 l/m 0 min 0 min 0 W/m 12,9 km/h (3 Bft) 98,15 %
24.02.2022 03:02 7,8 C 7,2 C 3,9 C 81 % 1016,7 hPa 0,0 l/m 0 min 0 min 0 W/m 9,7 km/h (2 Bft) 97,62 %
24.02.2022 03:04 7,8 C 7,2 C 3,9 C 81 % 1016,7 hPa 0,0 l/m 0 min 0 min 0 W/m 9,7 km/h (2 Bft) 96,30 %
24.02.2022 03:06 7,8 C 7,2 C 3,9 C 81 % 1016,7 hPa 0,0 l/m 0 min 0 min 0 W/m 9,7 km/h (2 Bft) 98,00 %
24.02.2022 03:08 7,8 C 7,2 C 3,9 C 81 % 1016,6 hPa 0,0 l/m 0 min 0 min 0 W/m 16,1 km/h (3 Bft) 97,87 %
24.02.2022 03:10 7,8 C 7,2 C 3,9 C 81 % 1016,6 hPa 0,0 l/m 0 min 0 min 0 W/m 16,1 km/h (3 Bft) 100,00 %
24.02.2022 03:12 7,8 C 7,2 C 3,9 C 81 % 1016,6 hPa 0,0 l/m 0 min 0 min 0 W/m 9,7 km/h (2 Bft) 95,74 %
24.02.2022 03:14 7,8 C 7,2 C 3,9 C 81 % 1016,6 hPa 0,0 l/m 0 min 0 min 0 W/m 12,9 km/h (3 Bft) 98,11 %
24.02.2022 03:16 7,8 C 7,2 C 3,9 C 81 % 1016,6 hPa 0,0 l/m 0 min 0 min 0 W/m 6,4 km/h (2 Bft) 98,00 %
24.02.2022 03:18 7,8 C 7,2 C 3,9 C 81 % 1016,6 hPa 0,0 l/m 0 min 0 min 0 W/m 9,7 km/h (2 Bft) 93,62 %
24.02.2022 03:20 7,8 C 7,2 C 3,9 C 82 % 1016,5 hPa 0,0 l/m 0 min 0 min 0 W/m 16,1 km/h (3 Bft) 97,30 %
24.02.2022 03:22 7,8 C 7,2 C 3,9 C 82 % 1016,5 hPa 0,0 l/m 0 min 0 min 0 W/m 12,9 km/h (3 Bft) 100,00 %
24.02.2022 03:24 7,8 C 7,2 C 3,9 C 81 % 1016,5 hPa 0,0 l/m 0 min 0 min 0 W/m 16,1 km/h (3 Bft) 97,87 %
24.02.2022 03:26 7,8 C 7,2 C 3,9 C 81 % 1016,5 hPa 0,0 l/m 0 min 0 min 0 W/m 12,9 km/h (3 Bft) 96,23 %
24.02.2022 03:28 7,8 C 7,2 C 3,9 C 81 % 1016,4 hPa 0,0 l/m 0 min 0 min 0 W/m 16,1 km/h (3 Bft) 96,00 %
24.02.2022 03:30 7,8 C 7,2 C 3,9 C 82 % 1016,4 hPa 0,0 l/m 0 min 0 min 0 W/m 12,9 km/h (3 Bft) 94,59 %
24.02.2022 03:32 7,8 C 7,2 C 3,9 C 82 % 1016,4 hPa 0,0 l/m 0 min 0 min 0 W/m 16,1 km/h (3 Bft) 97,87 %
24.02.2022 03:34 7,8 C 7,2 C 3,9 C 82 % 1016,4 hPa 0,0 l/m 0 min 0 min 0 W/m 9,7 km/h (2 Bft) 98,11 %
24.02.2022 03:36 7,8 C 7,2 C 3,9 C 82 % 1016,3 hPa 0,0 l/m 0 min 0 min 0 W/m 12,9 km/h (3 Bft) 97,87 %
24.02.2022 03:38 7,8 C 7,2 C 3,9 C 82 % 1016,2 hPa 0,0 l/m 0 min 0 min 0 W/m 12,9 km/h (3 Bft) 98,00 %
24.02.2022 03:40 7,8 C 7,2 C 3,9 C 82 % 1016,2 hPa 0,0 l/m 0 min 0 min 0 W/m 16,1 km/h (3 Bft) 97,87 %
24.02.2022 03:42 7,8 C 7,2 C 3,9 C 82 % 1016,2 hPa 0,0 l/m 0 min 0 min 0 W/m 16,1 km/h (3 Bft) 97,87 %
24.02.2022 03:44 7,8 C 7,2 C 3,9 C 82 % 1016,1 hPa 0,0 l/m 0 min 0 min 0 W/m 12,9 km/h (3 Bft) 97,30 %
24.02.2022 03:46 7,8 C 7,2 C 3,9 C 82 % 1016,1 hPa 0,0 l/m 0 min 0 min 0 W/m 12,9 km/h (3 Bft) 97,87 %
24.02.2022 03:48 7,8 C 7,2 C 3,9 C 82 % 1016,1 hPa 0,0 l/m 0 min 0 min 0 W/m 12,9 km/h (3 Bft) 98,11 %
24.02.2022 03:50 7,8 C 7,2 C 3,9 C 82 % 1016,1 hPa 0,0 l/m 0 min 0 min 0 W/m 9,7 km/h (2 Bft) 98,00 %
24.02.2022 03:52 7,8 C 7,2 C 3,9 C 82 % 1016,1 hPa 0,0 l/m 0 min 0 min 0 W/m 19,3 km/h (3 Bft) 97,30 %
24.02.2022 03:54 7,8 C 7,2 C 3,9 C 82 % 1016,1 hPa 0,0 l/m 0 min 0 min 0 W/m 9,7 km/h (2 Bft) 97,87 %
24.02.2022 03:56 7,8 C 7,2 C 3,9 C 82 % 1016,0 hPa 0,0 l/m 0 min 0 min 0 W/m 9,7 km/h (2 Bft) 97,87 %
24.02.2022 03:58 7,8 C 7,2 C 3,9 C 82 % 1015,9 hPa 0,0 l/m 0 min 0 min 0 W/m 12,9 km/h (3 Bft) 98,00 %
24.02.2022 04:00 7,8 C 7,2 C 3,9 C 82 % 1015,9 hPa 0,0 l/m 0 min 0 min 0 W/m 16,1 km/h (3 Bft) 100,00 %
24.02.2022 04:05 7,7 C 7,2 C 3,9 C 82 % 1015,8 hPa 0,0 l/m 0 min 0 min 0 W/m 12,9 km/h (3 Bft) 96,23 %
24.02.2022 04:06 7,7 C 7,2 C 3,9 C 82 % 1015,8 hPa 0,0 l/m 0 min 0 min 0 W/m 6,4 km/h (2 Bft) 91,67 %
24.02.2022 04:08 7,7 C 7,2 C 3,9 C 82 % 1015,8 hPa 0,0 l/m 0 min 0 min 0 W/m 12,9 km/h (3 Bft) 95,74 %
24.02.2022 04:10 7,7 C 7,2 C 3,9 C 82 % 1015,7 hPa 0,0 l/m 0 min 0 min 0 W/m 16,1 km/h (3 Bft) 95,65 %
24.02.2022 04:12 7,7 C 7,2 C 3,9 C 82 % 1015,7 hPa 0,0 l/m 0 min 0 min 0 W/m 9,7 km/h (2 Bft) 95,74 %
24.02.2022 04:14 7,7 C 7,2 C 3,9 C 82 % 1015,7 hPa 0,0 l/m 0 min 0 min 0 W/m 6,4 km/h (2 Bft) 100,00 %
24.02.2022 04:16 7,7 C 7,2 C 3,9 C 82 % 1015,7 hPa 0,0 l/m 0 min 0 min 0 W/m 9,7 km/h (2 Bft) 97,87 %
24.02.2022 04:18 7,7 C 7,2 C 3,9 C 82 % 1015,7 hPa 0,0 l/m 0 min 0 min 0 W/m 12,9 km/h (3 Bft) 100,00 %
24.02.2022 04:20 7,8 C 7,2 C 3,9 C 82 % 1015,7 hPa 0,0 l/m 0 min 0 min 0 W/m 9,7 km/h (2 Bft) 92,86 %
24.02.2022 04:22 7,7 C 7,2 C 3,9 C 82 % 1015,6 hPa 0,0 l/m 0 min 0 min 0 W/m 12,9 km/h (3 Bft) 95,83 %
24.02.2022 04:24 7,7 C 7,2 C 3,9 C 82 % 1015,6 hPa 0,0 l/m 0 min 0 min 0 W/m 6,4 km/h (2 Bft) 97,87 %
24.02.2022 04:26 7,7 C 7,2 C 3,9 C 82 % 1015,6 hPa 0,0 l/m 0 min 0 min 0 W/m 16,1 km/h (3 Bft) 97,87 %
24.02.2022 04:28 7,7 C 7,2 C 3,9 C 82 % 1015,5 hPa 0,0 l/m 0 min 0 min 0 W/m 12,9 km/h (3 Bft) 97,87 %
24.02.2022 04:30 7,7 C 7,2 C 3,9 C 82 % 1015,5 hPa 0,0 l/m 0 min 0 min 0 W/m 9,7 km/h (2 Bft) 97,62 %
24.02.2022 04:32 7,7 C 7,2 C 3,3 C 82 % 1015,5 hPa 0,0 l/m 0 min 0 min 0 W/m 6,4 km/h (2 Bft) 98,00 %
24.02.2022 04:34 7,7 C 7,2 C 3,9 C 82 % 1015,5 hPa 0,0 l/m 0 min 0 min 0 W/m 9,7 km/h (2 Bft) 95,65 %
24.02.2022 04:36 7,7 C 7,2 C 3,3 C 82 % 1015,5 hPa 0,0 l/m 0 min 0 min 0 W/m 12,9 km/h (3 Bft) 97,96 %
24.02.2022 04:38 7,7 C 7,2 C 3,9 C 82 % 1015,5 hPa 0,0 l/m 0 min 0 min 0 W/m 12,9 km/h (3 Bft) 95,74 %
24.02.2022 04:40 7,7 C 7,2 C 3,9 C 82 % 1015,4 hPa 0,0 l/m 0 min 0 min 0 W/m 12,9 km/h (3 Bft) 95,74 %
24.02.2022 04:42 7,7 C 7,2 C 3,9 C 82 % 1015,4 hPa 0,0 l/m 0 min 0 min 0 W/m 9,7 km/h (2 Bft) 97,87 %
24.02.2022 04:44 7,7 C 7,2 C 3,3 C 82 % 1015,4 hPa 0,0 l/m 0 min 0 min 0 W/m 16,1 km/h (3 Bft) 95,65 %
24.02.2022 04:46 7,7 C 7,2 C 3,9 C 82 % 1015,3 hPa 0,0 l/m 0 min 0 min 0 W/m 9,7 km/h (2 Bft) 97,62 %
24.02.2022 04:48 7,7 C 7,2 C 3,9 C 82 % 1015,3 hPa 0,0 l/m 0 min 0 min 0 W/m 12,9 km/h (3 Bft) 97,87 %
24.02.2022 04:50 7,7 C 7,2 C 3,9 C 82 % 1015,2 hPa 0,0 l/m 0 min 0 min 0 W/m 9,7 km/h (2 Bft) 97,87 %
24.02.2022 04:52 7,7 C 7,2 C 3,9 C 82 % 1015,3 hPa 0,0 l/m 0 min 0 min 0 W/m 19,3 km/h (3 Bft) 98,00 %
24.02.2022 04:54 7,7 C 7,2 C 3,9 C 82 % 1015,2 hPa 0,0 l/m 0 min 0 min 0 W/m 9,7 km/h (2 Bft) 97,87 %
24.02.2022 04:56 7,8 C 7,2 C 3,9 C 82 % 1015,2 hPa 0,0 l/m 0 min 0 min 0 W/m 9,7 km/h (2 Bft) 97,92 %
24.02.2022 04:58 7,8 C 7,2 C 3,9 C 82 % 1015,2 hPa 0,0 l/m 0 min 0 min 0 W/m 12,9 km/h (3 Bft) 100,00 %
24.02.2022 05:00 7,8 C 7,2 C 3,9 C 82 % 1015,1 hPa 0,0 l/m 0 min 0 min 0 W/m 12,9 km/h (3 Bft) 100,00 %
24.02.2022 05:02 7,8 C 7,2 C 3,9 C 82 % 1015,1 hPa 0,0 l/m 0 min 0 min 0 W/m 9,7 km/h (2 Bft) 100,00 %
24.02.2022 05:04 7,8 C 7,2 C 3,9 C 82 % 1015,1 hPa 0,0 l/m 0 min 0 min 0 W/m 6,4 km/h (2 Bft) 100,00 %
24.02.2022 05:06 7,8 C 7,2 C 3,9 C 82 % 1015,1 hPa 0,0 l/m 0 min 0 min 0 W/m 6,4 km/h (2 Bft) 100,00 %
24.02.2022 05:08 7,7 C 7,2 C 3,9 C 82 % 1015,0 hPa 0,0 l/m 0 min 0 min 0 W/m 16,1 km/h (3 Bft) 97,83 %
24.02.2022 05:10 7,7 C 7,2 C 3,9 C 82 % 1015,0 hPa 0,0 l/m 0 min 0 min 0 W/m 6,4 km/h (2 Bft) 100,00 %
24.02.2022 05:12 7,7 C 7,2 C 3,3 C 82 % 1015,0 hPa 0,0 l/m 0 min 0 min 0 W/m 9,7 km/h (2 Bft) 98,15 %
24.02.2022 05:14 7,7 C 7,2 C 3,3 C 82 % 1014,9 hPa 0,0 l/m 0 min 0 min 0 W/m 9,7 km/h (2 Bft) 100,00 %
24.02.2022 05:16 7,7 C 7,2 C 3,3 C 82 % 1014,9 hPa 0,0 l/m 0 min 0 min 0 W/m 6,4 km/h (2 Bft) 100,00 %
24.02.2022 05:18 7,7 C 7,2 C 3,3 C 82 % 1014,9 hPa 0,0 l/m 0 min 0 min 0 W/m 6,4 km/h (2 Bft) 97,96 %
24.02.2022 05:20 7,7 C 6,7 C 3,3 C 82 % 1014,9 hPa 0,0 l/m 0 min 0 min 0 W/m 6,4 km/h (2 Bft) 100,00 %
24.02.2022 05:22 7,7 C 6,7 C 3,3 C 82 % 1014,9 hPa 0,0 l/m 0 min 0 min 0 W/m 9,7 km/h (2 Bft) 96,30 %
24.02.2022 05:24 7,7 C 6,7 C 3,3 C 82 % 1014,9 hPa 0,0 l/m 0 min 0 min 0 W/m 6,4 km/h (2 Bft) 95,74 %
24.02.2022 05:26 7,7 C 6,7 C 3,3 C 82 % 1014,9 hPa 0,0 l/m 0 min 0 min 0 W/m 6,4 km/h (2 Bft) 92,11 %
24.02.2022 05:28 7,7 C 6,7 C 3,3 C 82 % 1014,9 hPa 0,0 l/m 0 min 0 min 0 W/m 6,4 km/h (2 Bft) 93,88 %
24.02.2022 05:30 7,7 C 6,7 C 3,3 C 83 % 1014,8 hPa 0,0 l/m 0 min 0 min 0 W/m 3,2 km/h (1 Bft) 95,74 %
24.02.2022 05:32 7,7 C 6,7 C 3,3 C 83 % 1014,8 hPa 0,0 l/m 0 min 0 min 0 W/m 6,4 km/h (2 Bft) 95,65 %
24.02.2022 05:34 7,7 C 6,7 C 3,3 C 83 % 1014,8 hPa 0,0 l/m 0 min 0 min 0 W/m 3,2 km/h (1 Bft) 95,74 %
24.02.2022 05:36 7,7 C 6,7 C 3,3 C 83 % 1014,7 hPa 0,0 l/m 0 min 0 min 0 W/m 6,4 km/h (2 Bft) 93,62 %
24.02.2022 05:38 7,7 C 6,7 C 3,3 C 83 % 1014,7 hPa 0,0 l/m 0 min 0 min 0 W/m 6,4 km/h (2 Bft) 95,74 %
24.02.2022 05:40 7,6 C 6,7 C 3,3 C 83 % 1014,7 hPa 0,0 l/m 0 min 0 min 0 W/m 6,4 km/h (2 Bft) 91,49 %
24.02.2022 05:42 7,6 C 6,7 C 3,3 C 83 % 1014,7 hPa 0,0 l/m 0 min 0 min 0 W/m 6,4 km/h (2 Bft) 94,44 %
24.02.2022 05:44 7,6 C 6,7 C 3,3 C 83 % 1014,7 hPa 0,0 l/m 0 min 0 min 0 W/m 6,4 km/h (2 Bft) 94,59 %
24.02.2022 05:46 7,6 C 6,7 C 3,3 C 83 % 1014,6 hPa 0,0 l/m 0 min 0 min 0 W/m 6,4 km/h (2 Bft) 95,92 %
24.02.2022 05:48 7,6 C 6,7 C 3,3 C 83 % 1014,6 hPa 0,0 l/m 0 min 0 min 0 W/m 9,7 km/h (2 Bft) 95,74 %
24.02.2022 05:50 7,6 C 6,7 C 3,3 C 83 % 1014,6 hPa 0,0 l/m 0 min 0 min 0 W/m 6,4 km/h (2 Bft) 95,24 %
24.02.2022 05:52 7,6 C 6,7 C 3,3 C 83 % 1014,5 hPa 0,0 l/m 0 min 0 min 0 W/m 6,4 km/h (2 Bft) 93,22 %
24.02.2022 05:54 7,6 C 6,7 C 3,3 C 83 % 1014,3 hPa 0,0 l/m 0 min 0 min 0 W/m 6,4 km/h (2 Bft) 95,65 %
24.02.2022 05:56 7,5 C 6,7 C 3,3 C 83 % 1014,3 hPa 0,0 l/m 0 min 0 min 0 W/m 6,4 km/h (2 Bft) 94,74 %
24.02.2022 05:58 7,5 C 6,7 C 3,3 C 84 % 1014,1 hPa 0,0 l/m 0 min 0 min 0 W/m 12,9 km/h (3 Bft) 98,00 %
24.02.2022 06:00 7,5 C 6,7 C 3,3 C 84 % 1014,1 hPa 0,0 l/m 0 min 0 min 0 W/m 6,4 km/h (2 Bft) 97,96 %
24.02.2022 06:02 7,5 C 6,7 C 3,3 C 84 % 1014,1 hPa 0,0 l/m 0 min 0 min 0 W/m 6,4 km/h (2 Bft) 94,00 %
24.02.2022 06:04 7,4 C 6,7 C 3,3 C 84 % 1014,0 hPa 0,0 l/m 0 min 0 min 0 W/m 9,7 km/h (2 Bft) 97,37 %
24.02.2022 06:08 7,4 C 6,7 C 3,3 C 84 % 1014,0 hPa 0,0 l/m 0 min 0 min 0 W/m 12,9 km/h (3 Bft) 100,00 %
24.02.2022 06:10 7,4 C 6,7 C 3,3 C 84 % 1013,9 hPa 0,0 l/m 0 min 0 min 0 W/m 6,4 km/h (2 Bft) 100,00 %
24.02.2022 06:12 7,4 C 6,7 C 3,3 C 84 % 1013,9 hPa 0,0 l/m 0 min 0 min 0 W/m 6,4 km/h (2 Bft) 100,00 %
24.02.2022 06:14 7,4 C 6,7 C 3,3 C 84 % 1013,9 hPa 0,0 l/m 0 min 0 min 0 W/m 12,9 km/h (3 Bft) 97,87 %
24.02.2022 06:16 7,4 C 6,7 C 3,3 C 84 % 1013,8 hPa 0,0 l/m 0 min 0 min 0 W/m 9,7 km/h (2 Bft) 100,00 %
24.02.2022 06:18 7,4 C 6,7 C 3,3 C 84 % 1013,8 hPa 0,0 l/m 0 min 0 min 0 W/m 6,4 km/h (2 Bft) 100,00 %
24.02.2022 06:20 7,4 C 6,7 C 3,3 C 84 % 1013,8 hPa 0,0 l/m 0 min 0 min 0 W/m 6,4 km/h (2 Bft) 98,11 %
24.02.2022 06:22 7,3 C 6,7 C 3,3 C 84 % 1013,7 hPa 0,0 l/m 0 min 0 min 0 W/m 3,2 km/h (1 Bft) 100,00 %
24.02.2022 06:24 7,3 C 6,7 C 3,3 C 84 % 1013,6 hPa 0,0 l/m 0 min 0 min 0 W/m 6,4 km/h (2 Bft) 100,00 %
24.02.2022 06:26 7,3 C 6,7 C 3,3 C 84 % 1013,7 hPa 0,0 l/m 0 min 0 min 0 W/m 12,9 km/h (3 Bft) 97,87 %
24.02.2022 06:28 7,3 C 6,7 C 3,3 C 84 % 1013,6 hPa 0,0 l/m 0 min 0 min 0 W/m 6,4 km/h (2 Bft) 100,00 %
24.02.2022 06:30 7,3 C 6,7 C 3,3 C 84 % 1013,6 hPa 0,0 l/m 0 min 0 min 0 W/m 9,7 km/h (2 Bft) 100,00 %
24.02.2022 06:32 7,3 C 6,7 C 3,3 C 84 % 1013,6 hPa 0,0 l/m 0 min 0 min 0 W/m 6,4 km/h (2 Bft) 100,00 %
24.02.2022 06:34 7,3 C 6,7 C 3,3 C 84 % 1013,7 hPa 0,0 l/m 0 min 0 min 0 W/m 12,9 km/h (3 Bft) 100,00 %
24.02.2022 06:36 7,3 C 6,1 C 3,3 C 84 % 1013,5 hPa 0,0 l/m 0 min 0 min 0 W/m 6,4 km/h (2 Bft) 94,59 %
24.02.2022 06:38 7,3 C 6,1 C 3,3 C 84 % 1013,6 hPa 0,0 l/m 0 min 0 min 0 W/m 9,7 km/h (2 Bft) 100,00 %
24.02.2022 06:40 7,2 C 6,1 C 3,3 C 84 % 1013,6 hPa 0,0 l/m 0 min 0 min 0 W/m 16,1 km/h (3 Bft) 97,87 %
24.02.2022 06:42 7,2 C 6,7 C 3,3 C 84 % 1013,5 hPa 0,0 l/m 0 min 0 min 0 W/m 19,3 km/h (3 Bft) 100,00 %
24.02.2022 06:44 7,2 C 6,7 C 3,3 C 84 % 1013,5 hPa 0,0 l/m 0 min 0 min 0 W/m 22,5 km/h (4 Bft) 97,83 %
24.02.2022 06:46 7,3 C 6,7 C 3,3 C 84 % 1013,4 hPa 0,0 l/m 0 min 0 min 0 W/m 16,1 km/h (3 Bft) 100,00 %
24.02.2022 06:48 7,3 C 6,7 C 3,3 C 83 % 1013,4 hPa 0,0 l/m 0 min 0 min 0 W/m 19,3 km/h (3 Bft) 100,00 %
24.02.2022 06:50 7,4 C 6,7 C 3,3 C 83 % 1013,5 hPa 0,0 l/m 0 min 0 min 0 W/m 19,3 km/h (3 Bft) 100,00 %
24.02.2022 06:52 7,4 C 6,7 C 3,3 C 82 % 1013,4 hPa 0,0 l/m 0 min 0 min 0 W/m 19,3 km/h (3 Bft) 100,00 %
24.02.2022 06:54 7,6 C 7,2 C 3,3 C 82 % 1013,5 hPa 0,0 l/m 0 min 0 min 0 W/m 19,3 km/h (3 Bft) 100,00 %
24.02.2022 06:56 7,6 C 7,2 C 3,9 C 81 % 1013,4 hPa 0,0 l/m 0 min 0 min 0 W/m 22,5 km/h (4 Bft) 100,00 %
24.02.2022 06:58 7,7 C 7,2 C 3,9 C 81 % 1013,5 hPa 0,0 l/m 0 min 0 min 0 W/m 22,5 km/h (4 Bft) 98,00 %
24.02.2022 07:00 7,7 C 7,2 C 3,3 C 81 % 1013,4 hPa 0,0 l/m 0 min 0 min 0 W/m 9,7 km/h (2 Bft) 100,00 %
24.02.2022 07:02 7,7 C 7,2 C 3,3 C 80 % 1013,4 hPa 0,0 l/m 0 min 0 min 0 W/m 12,9 km/h (3 Bft) 97,87 %
24.02.2022 07:04 7,8 C 7,2 C 3,9 C 80 % 1013,5 hPa 0,0 l/m 0 min 0 min 0 W/m 22,5 km/h (4 Bft) 97,87 %
24.02.2022 07:06 7,8 C 7,2 C 3,9 C 80 % 1013,4 hPa 0,0 l/m 0 min 0 min 0 W/m 16,1 km/h (3 Bft) 97,96 %
24.02.2022 07:08 7,8 C 7,2 C 3,9 C 80 % 1013,4 hPa 0,0 l/m 0 min 0 min 0 W/m 29,0 km/h (5 Bft) 97,87 %
24.02.2022 07:10 7,8 C 7,2 C 3,9 C 80 % 1013,3 hPa 0,0 l/m 0 min 0 min 0 W/m 22,5 km/h (4 Bft) 97,96 %
24.02.2022 07:12 7,8 C 7,2 C 3,9 C 80 % 1013,4 hPa 0,0 l/m 0 min 0 min 0 W/m 22,5 km/h (4 Bft) 97,87 %
24.02.2022 07:14 7,8 C 7,2 C 3,9 C 80 % 1013,3 hPa 0,0 l/m 0 min 0 min 0 W/m 16,1 km/h (3 Bft) 97,62 %
24.02.2022 07:16 7,8 C 7,2 C 3,3 C 80 % 1013,3 hPa 0,0 l/m 0 min 0 min 0 W/m 16,1 km/h (3 Bft) 93,62 %
24.02.2022 07:18 7,8 C 7,2 C 3,3 C 79 % 1013,4 hPa 0,0 l/m 0 min 0 min 0 W/m 25,7 km/h (4 Bft) 95,92 %
24.02.2022 07:20 7,8 C 7,2 C 3,3 C 79 % 1013,3 hPa 0,0 l/m 0 min 0 min 0 W/m 19,3 km/h (3 Bft) 95,92 %
24.02.2022 07:22 7,8 C 7,2 C 3,3 C 79 % 1013,3 hPa 0,0 l/m 0 min 0 min 0 W/m 22,5 km/h (4 Bft) 95,74 %
24.02.2022 07:24 7,8 C 7,2 C 3,3 C 79 % 1013,3 hPa 0,0 l/m 0 min 0 min 0 W/m 22,5 km/h (4 Bft) 95,24 %
24.02.2022 07:26 7,8 C 7,2 C 3,3 C 79 % 1013,3 hPa 0,0 l/m 0 min 0 min 0 W/m 12,9 km/h (3 Bft) 96,00 %
24.02.2022 07:28 7,8 C 6,7 C 3,3 C 79 % 1013,3 hPa 0,0 l/m 0 min 0 min 0 W/m 22,5 km/h (4 Bft) 95,83 %
24.02.2022 07:30 7,8 C 7,2 C 3,3 C 79 % 1013,4 hPa 0,0 l/m 0 min 0 min 0 W/m 19,3 km/h (3 Bft) 93,62 %
24.02.2022 07:32 7,8 C 7,2 C 3,3 C 79 % 1013,3 hPa 0,0 l/m 0 min 0 min 0 W/m 16,1 km/h (3 Bft) 95,24 %
24.02.2022 07:34 7,8 C 6,7 C 3,3 C 80 % 1013,3 hPa 0,0 l/m 0 min 0 min 3 W/m 12,9 km/h (3 Bft) 93,62 %
24.02.2022 07:36 7,8 C 6,7 C 3,3 C 80 % 1013,3 hPa 0,0 l/m 0 min 0 min 5 W/m 12,9 km/h (3 Bft) 96,00 %
24.02.2022 07:38 7,8 C 6,7 C 3,3 C 80 % 1013,3 hPa 0,0 l/m 0 min 0 min 5 W/m 19,3 km/h (3 Bft) 95,83 %
24.02.2022 07:40 7,8 C 7,2 C 3,3 C 80 % 1013,3 hPa 0,0 l/m 0 min 0 min 7 W/m 19,3 km/h (3 Bft) 95,74 %
24.02.2022 07:42 7,8 C 7,2 C 3,3 C 80 % 1013,3 hPa 0,0 l/m 0 min 0 min 8 W/m 22,5 km/h (4 Bft) 95,74 %
24.02.2022 07:44 7,8 C 7,2 C 3,3 C 80 % 1013,2 hPa 0,0 l/m 0 min 0 min 9 W/m 16,1 km/h (3 Bft) 92,86 %
24.02.2022 07:46 7,8 C 7,2 C 3,3 C 80 % 1013,1 hPa 0,0 l/m 0 min 0 min 10 W/m 19,3 km/h (3 Bft) 95,74 %
24.02.2022 07:48 7,8 C 6,7 C 3,3 C 80 % 1013,1 hPa 0,0 l/m 0 min 0 min 11 W/m 16,1 km/h (3 Bft) 95,74 %
24.02.2022 07:50 7,7 C 6,7 C 3,3 C 80 % 1013,2 hPa 0,0 l/m 0 min 0 min 12 W/m 16,1 km/h (3 Bft) 94,00 %
24.02.2022 07:52 7,7 C 7,2 C 3,3 C 80 % 1013,1 hPa 0,0 l/m 0 min 0 min 13 W/m 25,7 km/h (4 Bft) 97,92 %
24.02.2022 07:54 7,7 C 7,2 C 3,3 C 80 % 1013,1 hPa 0,0 l/m 0 min 0 min 15 W/m 22,5 km/h (4 Bft) 97,87 %
24.02.2022 07:56 7,7 C 7,2 C 3,3 C 80 % 1013,0 hPa 0,0 l/m 0 min 0 min 18 W/m 22,5 km/h (4 Bft) 97,87 %
24.02.2022 07:58 7,7 C 7,2 C 3,3 C 80 % 1013,0 hPa 0,0 l/m 0 min 0 min 20 W/m 16,1 km/h (3 Bft) 97,92 %
24.02.2022 08:00 7,7 C 7,2 C 3,3 C 80 % 1013,0 hPa 0,0 l/m 0 min 0 min 22 W/m 19,3 km/h (3 Bft) 97,87 %
24.02.2022 08:02 7,7 C 7,2 C 3,3 C 80 % 1013,0 hPa 0,0 l/m 0 min 0 min 23 W/m 25,7 km/h (4 Bft) 95,92 %
24.02.2022 08:04 7,7 C 7,2 C 3,9 C 80 % 1013,0 hPa 0,0 l/m 0 min 0 min 25 W/m 19,3 km/h (3 Bft) 97,87 %
24.02.2022 08:06 7,8 C 7,2 C 3,9 C 80 % 1012,9 hPa 0,0 l/m 0 min 0 min 27 W/m 22,5 km/h (4 Bft) 97,37 %
24.02.2022 08:08 7,8 C 7,2 C 3,9 C 79 % 1012,9 hPa 0,0 l/m 0 min 0 min 29 W/m 25,7 km/h (4 Bft) 97,96 %
24.02.2022 08:10 7,8 C 7,2 C 3,9 C 79 % 1012,9 hPa 0,0 l/m 0 min 0 min 33 W/m 16,1 km/h (3 Bft) 95,74 %
24.02.2022 08:12 7,8 C 7,2 C 3,9 C 79 % 1012,9 hPa 0,0 l/m 0 min 0 min 35 W/m 22,5 km/h (4 Bft) 97,87 %
24.02.2022 08:14 7,8 C 7,2 C 3,9 C 79 % 1012,9 hPa 0,0 l/m 0 min 0 min 38 W/m 16,1 km/h (3 Bft) 98,15 %
24.02.2022 08:16 7,8 C 7,2 C 3,9 C 79 % 1012,9 hPa 0,0 l/m 0 min 0 min 39 W/m 25,7 km/h (4 Bft) 97,30 %
24.02.2022 08:18 7,8 C 7,2 C 3,9 C 79 % 1012,9 hPa 0,0 l/m 0 min 0 min 39 W/m 19,3 km/h (3 Bft) 97,87 %
24.02.2022 08:20 7,8 C 7,2 C 3,9 C 80 % 1012,9 hPa 0,0 l/m 0 min 0 min 40 W/m 16,1 km/h (3 Bft) 95,92 %
24.02.2022 08:22 7,8 C 7,2 C 3,9 C 80 % 1012,9 hPa 0,0 l/m 0 min 0 min 42 W/m 32,2 km/h (5 Bft) 97,87 %
24.02.2022 08:24 7,8 C 7,2 C 3,9 C 80 % 1012,9 hPa 0,0 l/m 0 min 0 min 44 W/m 35,4 km/h (5 Bft) 97,87 %
24.02.2022 08:26 7,8 C 7,2 C 3,9 C 80 % 1012,9 hPa 0,0 l/m 0 min 0 min 45 W/m 22,5 km/h (4 Bft) 98,11 %
24.02.2022 08:28 7,8 C 7,2 C 3,9 C 80 % 1012,8 hPa 0,0 l/m 0 min 0 min 46 W/m 16,1 km/h (3 Bft) 97,37 %
24.02.2022 08:30 7,8 C 7,2 C 3,9 C 79 % 1012,8 hPa 0,0 l/m 0 min 0 min 47 W/m 22,5 km/h (4 Bft) 97,96 %
24.02.2022 08:32 7,8 C 7,2 C 3,9 C 79 % 1012,8 hPa 0,0 l/m 0 min 0 min 49 W/m 16,1 km/h (3 Bft) 55,56 %
24.02.2022 08:34 7,8 C 7,2 C 3,9 C 79 % 1012,7 hPa 0,0 l/m 0 min 0 min 53 W/m 19,3 km/h (3 Bft) 97,87 %
24.02.2022 08:36 7,8 C 7,2 C 3,9 C 79 % 1012,7 hPa 0,0 l/m 0 min 0 min 55 W/m 22,5 km/h (4 Bft) 98,15 %
24.02.2022 08:38 7,8 C 7,2 C 3,9 C 79 % 1012,7 hPa 0,0 l/m 0 min 0 min 58 W/m 16,1 km/h (3 Bft) 100,00 %
24.02.2022 08:40 7,8 C 7,2 C 3,9 C 79 % 1012,6 hPa 0,0 l/m 0 min 0 min 61 W/m 12,9 km/h (3 Bft) 100,00 %
24.02.2022 08:42 7,8 C 7,2 C 3,9 C 79 % 1012,6 hPa 0,0 l/m 0 min 0 min 62 W/m 16,1 km/h (3 Bft) 97,87 %
24.02.2022 08:44 7,8 C 7,2 C 3,9 C 80 % 1012,6 hPa 0,0 l/m 0 min 0 min 64 W/m 16,1 km/h (3 Bft) 100,00 %
24.02.2022 08:46 7,8 C 7,2 C 3,9 C 80 % 1012,6 hPa 0,0 l/m 0 min 0 min 67 W/m 16,1 km/h (3 Bft) 97,87 %
24.02.2022 08:48 7,8 C 7,2 C 3,9 C 80 % 1012,6 hPa 0,0 l/m 0 min 0 min 65 W/m 19,3 km/h (3 Bft) 100,00 %
24.02.2022 08:50 7,8 C 7,2 C 3,9 C 80 % 1012,6 hPa 0,0 l/m 0 min 0 min 65 W/m 12,9 km/h (3 Bft) 100,00 %
24.02.2022 08:52 7,8 C 7,2 C 3,9 C 80 % 1012,6 hPa 0,0 l/m 0 min 0 min 59 W/m 19,3 km/h (3 Bft) 100,00 %
24.02.2022 08:54 7,8 C 7,2 C 3,9 C 80 % 1012,5 hPa 0,0 l/m 0 min 0 min 54 W/m 12,9 km/h (3 Bft) 100,00 %
24.02.2022 08:56 7,8 C 7,2 C 3,9 C 80 % 1012,5 hPa 0,0 l/m 0 min 0 min 58 W/m 29,0 km/h (5 Bft) 97,87 %
24.02.2022 08:58 7,8 C 7,2 C 3,9 C 79 % 1012,5 hPa 0,0 l/m 0 min 0 min 66 W/m 22,5 km/h (4 Bft) 100,00 %
24.02.2022 09:00 7,9 C 7,2 C 3,9 C 79 % 1012,5 hPa 0,0 l/m 0 min 0 min 74 W/m 19,3 km/h (3 Bft) 100,00 %
24.02.2022 09:02 7,9 C 7,8 C 3,9 C 79 % 1012,5 hPa 0,0 l/m 0 min 0 min 83 W/m 19,3 km/h (3 Bft) 100,00 %
24.02.2022 09:04 7,9 C 7,8 C 3,9 C 79 % 1012,5 hPa 0,0 l/m 0 min 0 min 74 W/m 19,3 km/h (3 Bft) 100,00 %
24.02.2022 09:06 7,9 C 7,8 C 3,9 C 79 % 1012,5 hPa 0,0 l/m 0 min 0 min 55 W/m 19,3 km/h (3 Bft) 100,00 %
24.02.2022 09:08 7,9 C 7,8 C 3,9 C 79 % 1012,4 hPa 0,0 l/m 0 min 0 min 56 W/m 22,5 km/h (4 Bft) 97,87 %
24.02.2022 09:10 8,0 C 7,8 C 3,9 C 79 % 1012,4 hPa 0,0 l/m 0 min 0 min 62 W/m 16,1 km/h (3 Bft) 100,00 %
24.02.2022 09:12 8,0 C 7,8 C 3,9 C 79 % 1012,4 hPa 0,0 l/m 0 min 0 min 66 W/m 25,7 km/h (4 Bft) 97,87 %
24.02.2022 09:14 8,0 C 7,8 C 4,4 C 79 % 1012,3 hPa 0,0 l/m 0 min 0 min 69 W/m 12,9 km/h (3 Bft) 100,00 %
24.02.2022 09:16 8,0 C 7,8 C 4,4 C 79 % 1012,3 hPa 0,0 l/m 0 min 0 min 72 W/m 6,4 km/h (2 Bft) 97,87 %
24.02.2022 09:18 8,1 C 7,8 C 4,4 C 79 % 1012,3 hPa 0,0 l/m 0 min 0 min 69 W/m 9,7 km/h (2 Bft) 95,74 %
24.02.2022 09:20 8,1 C 7,8 C 4,4 C 79 % 1012,3 hPa 0,0 l/m 0 min 0 min 66 W/m 19,3 km/h (3 Bft) 97,87 %
24.02.2022 09:22 8,1 C 7,8 C 4,4 C 79 % 1012,3 hPa 0,0 l/m 0 min 0 min 72 W/m 12,9 km/h (3 Bft) 97,87 %
24.02.2022 09:24 8,1 C 7,8 C 4,4 C 79 % 1012,3 hPa 0,0 l/m 0 min 0 min 87 W/m 16,1 km/h (3 Bft) 97,87 %
24.02.2022 09:26 8,1 C 7,8 C 4,4 C 79 % 1012,2 hPa 0,0 l/m 0 min 0 min 100 W/m 12,9 km/h (3 Bft) 97,83 %
24.02.2022 09:28 8,1 C 7,8 C 4,4 C 78 % 1012,2 hPa 0,0 l/m 0 min 0 min 108 W/m 22,5 km/h (4 Bft) 97,87 %
24.02.2022 09:30 8,2 C 7,8 C 4,4 C 79 % 1012,1 hPa 0,0 l/m 0 min 0 min 114 W/m 12,9 km/h (3 Bft) 97,87 %
24.02.2022 09:32 8,2 C 7,8 C 4,4 C 79 % 1012,1 hPa 0,0 l/m 0 min 0 min 111 W/m 9,7 km/h (2 Bft) 98,11 %
24.02.2022 09:34 8,3 C 8,3 C 4,4 C 79 % 1012,1 hPa 0,0 l/m 0 min 0 min 119 W/m 16,1 km/h (3 Bft) 97,83 %
24.02.2022 09:36 8,3 C 8,3 C 4,4 C 79 % 1012,1 hPa 0,0 l/m 0 min 0 min 127 W/m 16,1 km/h (3 Bft) 97,87 %
24.02.2022 09:38 8,3 C 8,3 C 4,4 C 78 % 1012,1 hPa 0,0 l/m 0 min 0 min 129 W/m 19,3 km/h (3 Bft) 97,87 %
24.02.2022 09:40 8,3 C 8,3 C 4,4 C 78 % 1012,0 hPa 0,0 l/m 0 min 0 min 118 W/m 22,5 km/h (4 Bft) 97,87 %
24.02.2022 09:42 8,4 C 8,3 C 5,0 C 78 % 1012,1 hPa 0,0 l/m 0 min 0 min 103 W/m 25,7 km/h (4 Bft) 100,00 %
24.02.2022 09:44 8,4 C 8,3 C 4,4 C 78 % 1012,1 hPa 0,0 l/m 0 min 0 min 83 W/m 16,1 km/h (3 Bft) 97,87 %
24.02.2022 09:46 8,4 C 8,3 C 4,4 C 78 % 1012,1 hPa 0,0 l/m 0 min 0 min 79 W/m 16,1 km/h (3 Bft) 95,65 %
24.02.2022 09:48 8,4 C 8,3 C 4,4 C 78 % 1012,1 hPa 0,0 l/m 0 min 0 min 87 W/m 16,1 km/h (3 Bft) 95,74 %
24.02.2022 09:50 8,5 C 8,3 C 4,4 C 78 % 1012,0 hPa 0,0 l/m 0 min 0 min 97 W/m 16,1 km/h (3 Bft) 97,87 %
24.02.2022 09:52 8,5 C 8,3 C 5,0 C 78 % 1012,0 hPa 0,0 l/m 0 min 0 min 121 W/m 16,1 km/h (3 Bft) 97,87 %
24.02.2022 09:54 8,6 C 8,3 C 5,0 C 78 % 1011,9 hPa 0,0 l/m 0 min 0 min 138 W/m 19,3 km/h (3 Bft) 97,87 %
24.02.2022 09:56 8,6 C 8,3 C 5,0 C 78 % 1011,9 hPa 0,0 l/m 0 min 0 min 126 W/m 16,1 km/h (3 Bft) 97,87 %
24.02.2022 09:58 8,6 C 8,3 C 5,0 C 78 % 1011,8 hPa 0,0 l/m 0 min 0 min 114 W/m 12,9 km/h (3 Bft) 97,83 %
24.02.2022 10:00 8,6 C 8,3 C 5,0 C 78 % 1011,8 hPa 0,0 l/m 0 min 0 min 109 W/m 16,1 km/h (3 Bft) 95,74 %
24.02.2022 10:02 8,7 C 8,3 C 5,0 C 78 % 1011,6 hPa 0,0 l/m 0 min 0 min 104 W/m 16,1 km/h (3 Bft) 97,92 %
24.02.2022 10:04 8,7 C 8,3 C 5,0 C 78 % 1011,6 hPa 0,0 l/m 0 min 0 min 104 W/m 25,7 km/h (4 Bft) 97,87 %
24.02.2022 10:06 8,7 C 8,3 C 5,0 C 78 % 1011,6 hPa 0,0 l/m 0 min 0 min 101 W/m 22,5 km/h (4 Bft) 95,74 %
24.02.2022 10:08 8,8 C 8,3 C 5,0 C 78 % 1011,5 hPa 0,0 l/m 0 min 0 min 117 W/m 22,5 km/h (4 Bft) 100,00 %
24.02.2022 10:10 8,8 C 8,3 C 5,0 C 78 % 1011,5 hPa 0,0 l/m 0 min 0 min 123 W/m 29,0 km/h (5 Bft) 97,83 %
24.02.2022 10:12 8,8 C 8,3 C 5,0 C 78 % 1011,5 hPa 0,0 l/m 0 min 0 min 125 W/m 32,2 km/h (5 Bft) 97,87 %
24.02.2022 10:14 8,8 C 8,9 C 5,0 C 78 % 1011,5 hPa 0,0 l/m 0 min 0 min 143 W/m 25,7 km/h (4 Bft) 97,87 %
24.02.2022 10:16 8,8 C 8,9 C 5,0 C 78 % 1011,4 hPa 0,0 l/m 0 min 0 min 156 W/m 22,5 km/h (4 Bft) 97,87 %
24.02.2022 10:18 8,8 C 8,9 C 5,6 C 78 % 1011,3 hPa 0,0 l/m 2 min 0 min 188 W/m 22,5 km/h (4 Bft) 97,87 %
24.02.2022 10:20 8,9 C 9,4 C 5,6 C 78 % 1011,3 hPa 0,0 l/m 2 min 0 min 211 W/m 25,7 km/h (4 Bft) 95,74 %
24.02.2022 10:22 8,9 C 9,4 C 5,6 C 78 % 1011,3 hPa 0,0 l/m 2 min 0 min 222 W/m 29,0 km/h (5 Bft) 95,65 %
24.02.2022 10:24 9,1 C 10,6 C 5,6 C 78 % 1011,2 hPa 0,0 l/m 2 min 0 min 278 W/m 19,3 km/h (3 Bft) 95,74 %
24.02.2022 10:26 9,1 C 10,6 C 6,1 C 78 % 1011,2 hPa 0,0 l/m 2 min 0 min 271 W/m 25,7 km/h (4 Bft) 97,87 %
24.02.2022 10:28 9,2 C 10,0 C 5,6 C 78 % 1011,3 hPa 0,0 l/m 2 min 0 min 223 W/m 35,4 km/h (5 Bft) 97,87 %
24.02.2022 10:30 9,2 C 10,0 C 5,6 C 78 % 1011,2 hPa 0,0 l/m 2 min 0 min 202 W/m 32,2 km/h (5 Bft) 93,62 %
24.02.2022 10:32 9,2 C 10,0 C 5,6 C 78 % 1011,2 hPa 0,0 l/m 2 min 0 min 212 W/m 32,2 km/h (5 Bft) 97,87 %
24.02.2022 10:34 9,3 C 10,0 C 6,1 C 79 % 1011,1 hPa 0,0 l/m 2 min 0 min 233 W/m 19,3 km/h (3 Bft) 95,74 %
24.02.2022 10:36 9,3 C 10,0 C 6,1 C 79 % 1011,1 hPa 0,0 l/m 2 min 0 min 245 W/m 32,2 km/h (5 Bft) 97,87 %
24.02.2022 10:38 9,3 C 10,0 C 6,1 C 79 % 1011,0 hPa 0,0 l/m 2 min 0 min 205 W/m 35,4 km/h (5 Bft) 97,87 %
24.02.2022 10:40 9,3 C 10,0 C 6,1 C 79 % 1011,0 hPa 0,0 l/m 2 min 0 min 211 W/m 32,2 km/h (5 Bft) 97,37 %
24.02.2022 10:42 9,4 C 10,6 C 6,1 C 79 % 1011,0 hPa 0,0 l/m 2 min 0 min 288 W/m 35,4 km/h (5 Bft) 100,00 %
24.02.2022 10:44 9,4 C 11,1 C 6,1 C 79 % 1010,9 hPa 0,0 l/m 2 min 0 min 302 W/m 35,4 km/h (5 Bft) 95,74 %
24.02.2022 10:46 9,5 C 11,7 C 6,1 C 79 % 1010,8 hPa 0,0 l/m 2 min 0 min 296 W/m 19,3 km/h (3 Bft) 97,83 %
24.02.2022 10:48 9,6 C 11,1 C 6,7 C 79 % 1010,8 hPa 0,0 l/m 2 min 0 min 317 W/m 25,7 km/h (4 Bft) 97,87 %
24.02.2022 10:50 9,6 C 11,1 C 6,7 C 79 % 1010,8 hPa 0,0 l/m 2 min 0 min 248 W/m 35,4 km/h (5 Bft) 97,87 %
24.02.2022 10:52 9,6 C 11,7 C 6,7 C 79 % 1010,8 hPa 0,0 l/m 2 min 0 min 285 W/m 29,0 km/h (5 Bft) 93,62 %
24.02.2022 10:54 9,7 C 11,1 C 6,7 C 79 % 1010,7 hPa 0,0 l/m 2 min 0 min 368 W/m 29,0 km/h (5 Bft) 97,87 %
24.02.2022 10:56 9,7 C 10,6 C 6,7 C 78 % 1010,7 hPa 0,0 l/m 2 min 0 min 235 W/m 29,0 km/h (5 Bft) 97,87 %
24.02.2022 10:58 9,7 C 10,0 C 6,7 C 78 % 1010,6 hPa 0,0 l/m 2 min 0 min 224 W/m 41,8 km/h (6 Bft) 93,48 %
24.02.2022 11:00 9,7 C 10,0 C 6,1 C 78 % 1010,6 hPa 0,0 l/m 2 min 0 min 214 W/m 32,2 km/h (5 Bft) 97,87 %
24.02.2022 11:02 9,7 C 10,0 C 6,1 C 78 % 1010,6 hPa 0,0 l/m 0 min 0 min 205 W/m 25,7 km/h (4 Bft) 97,87 %
24.02.2022 11:04 9,7 C 9,4 C 6,1 C 78 % 1010,5 hPa 0,0 l/m 0 min 0 min 201 W/m 35,4 km/h (5 Bft) 95,74 %
24.02.2022 11:06 9,7 C 10,0 C 6,1 C 79 % 1010,5 hPa 0,0 l/m 0 min 0 min 209 W/m 19,3 km/h (3 Bft) 97,87 %
24.02.2022 11:08 9,7 C 10,0 C 6,1 C 79 % 1010,5 hPa 0,0 l/m 2 min 0 min 239 W/m 29,0 km/h (5 Bft) 97,87 %
24.02.2022 11:10 9,7 C 10,0 C 6,1 C 79 % 1010,4 hPa 0,0 l/m 2 min 0 min 247 W/m 29,0 km/h (5 Bft) 95,74 %
24.02.2022 11:12 9,7 C 10,6 C 6,7 C 79 % 1010,4 hPa 0,0 l/m 2 min 0 min 282 W/m 25,7 km/h (4 Bft) 95,74 %
24.02.2022 11:14 9,7 C 11,1 C 6,7 C 79 % 1010,4 hPa 0,0 l/m 2 min 0 min 330 W/m 25,7 km/h (4 Bft) 95,74 %
24.02.2022 11:16 9,7 C 11,1 C 6,7 C 79 % 1010,3 hPa 0,0 l/m 2 min 0 min 317 W/m 22,5 km/h (4 Bft) 97,87 %
24.02.2022 11:18 9,8 C 10,6 C 6,7 C 79 % 1010,2 hPa 0,0 l/m 2 min 0 min 283 W/m 41,8 km/h (6 Bft) 97,87 %
24.02.2022 11:20 9,8 C 11,1 C 7,2 C 79 % 1010,2 hPa 0,0 l/m 2 min 0 min 307 W/m 29,0 km/h (5 Bft) 95,65 %
24.02.2022 11:22 9,9 C 12,2 C 7,8 C 78 % 1010,2 hPa 0,0 l/m 2 min 0 min 365 W/m 22,5 km/h (4 Bft) 93,62 %
24.02.2022 11:24 10,0 C 12,8 C 8,3 C 78 % 1010,2 hPa 0,0 l/m 2 min 0 min 383 W/m 22,5 km/h (4 Bft) 95,74 %
24.02.2022 11:26 10,1 C 12,2 C 7,8 C 78 % 1010,2 hPa 0,0 l/m 2 min 0 min 325 W/m 25,7 km/h (4 Bft) 95,74 %
24.02.2022 11:28 10,1 C 11,7 C 7,8 C 77 % 1010,2 hPa 0,0 l/m 2 min 0 min 266 W/m 29,0 km/h (5 Bft) 95,74 %
24.02.2022 11:30 10,1 C 10,6 C 7,2 C 76 % 1010,2 hPa 0,0 l/m 0 min 0 min 156 W/m 35,4 km/h (5 Bft) 95,74 %
24.02.2022 11:32 10,1 C 10,0 C 6,7 C 76 % 1010,2 hPa 0,0 l/m 0 min 0 min 105 W/m 22,5 km/h (4 Bft) 95,65 %
24.02.2022 11:34 10,0 C 10,0 C 6,7 C 76 % 1010,1 hPa 0,0 l/m 0 min 0 min 97 W/m 22,5 km/h (4 Bft) 93,62 %
24.02.2022 11:36 9,9 C 9,4 C 6,7 C 76 % 1010,0 hPa 0,0 l/m 0 min 0 min 133 W/m 22,5 km/h (4 Bft) 95,74 %
24.02.2022 11:38 9,9 C 9,4 C 6,1 C 77 % 1010,1 hPa 0,0 l/m 0 min 0 min 155 W/m 38,6 km/h (5 Bft) 95,74 %
24.02.2022 11:40 9,9 C 10,0 C 6,1 C 76 % 1010,0 hPa 0,0 l/m 0 min 0 min 183 W/m 32,2 km/h (5 Bft) 95,74 %
24.02.2022 11:42 9,9 C 10,0 C 6,1 C 76 % 1009,9 hPa 0,0 l/m 0 min 0 min 207 W/m 32,2 km/h (5 Bft) 95,74 %
24.02.2022 11:44 9,8 C 10,0 C 6,7 C 76 % 1010,0 hPa 0,0 l/m 2 min 0 min 238 W/m 22,5 km/h (4 Bft) 95,65 %
24.02.2022 11:46 9,8 C 10,0 C 6,7 C 77 % 1009,8 hPa 0,0 l/m 0 min 0 min 229 W/m 25,7 km/h (4 Bft) 97,87 %
24.02.2022 11:48 9,9 C 10,6 C 6,7 C 77 % 1009,8 hPa 0,0 l/m 2 min 0 min 297 W/m 25,7 km/h (4 Bft) 97,87 %
24.02.2022 11:50 9,9 C 11,1 C 7,2 C 76 % 1009,7 hPa 0,0 l/m 2 min 0 min 323 W/m 32,2 km/h (5 Bft) 97,87 %
24.02.2022 11:52 10,0 C 10,6 C 7,2 C 76 % 1009,8 hPa 0,0 l/m 0 min 0 min 221 W/m 35,4 km/h (5 Bft) 97,87 %
24.02.2022 11:54 10,0 C 10,6 C 6,7 C 75 % 1009,7 hPa 0,0 l/m 0 min 0 min 162 W/m 19,3 km/h (3 Bft) 97,87 %
24.02.2022 11:56 10,0 C 10,0 C 6,7 C 75 % 1009,6 hPa 0,0 l/m 0 min 0 min 140 W/m 32,2 km/h (5 Bft) 100,00 %
24.02.2022 11:58 10,0 C 10,0 C 6,7 C 75 % 1009,6 hPa 0,0 l/m 0 min 0 min 143 W/m 29,0 km/h (5 Bft) 97,87 %
24.02.2022 12:00 10,0 C 10,0 C 6,7 C 75 % 1009,5 hPa 0,0 l/m 0 min 0 min 200 W/m 22,5 km/h (4 Bft) 100,00 %
24.02.2022 12:02 10,1 C 11,1 C 6,7 C 76 % 1009,4 hPa 0,0 l/m 2 min 0 min 240 W/m 22,5 km/h (4 Bft) 100,00 %
24.02.2022 12:04 10,1 C 11,7 C 7,2 C 76 % 1009,3 hPa 0,0 l/m 2 min 0 min 324 W/m 19,3 km/h (3 Bft) 100,00 %
24.02.2022 12:08 10,3 C 11,7 C 7,8 C 75 % 1009,3 hPa 0,0 l/m 4 min 0 min 279 W/m 35,4 km/h (5 Bft) 78,57 %
24.02.2022 12:10 10,4 C 11,7 C 7,2 C 76 % 1009,4 hPa 0,0 l/m 0 min 0 min 216 W/m 22,5 km/h (4 Bft) 100,00 %
24.02.2022 12:12 10,4 C 10,6 C 7,2 C 75 % 1009,3 hPa 0,0 l/m 0 min 0 min 210 W/m 38,6 km/h (5 Bft) 97,87 %
24.02.2022 12:14 10,4 C 10,6 C 7,2 C 75 % 1009,1 hPa 0,0 l/m 0 min 0 min 199 W/m 25,7 km/h (4 Bft) 100,00 %
24.02.2022 12:16 10,4 C 10,6 C 7,2 C 75 % 1009,1 hPa 0,0 l/m 0 min 0 min 215 W/m 35,4 km/h (5 Bft) 97,83 %
24.02.2022 12:18 10,3 C 10,6 C 7,2 C 75 % 1009,2 hPa 0,0 l/m 0 min 0 min 241 W/m 22,5 km/h (4 Bft) 100,00 %
24.02.2022 12:20 10,4 C 10,6 C 7,2 C 75 % 1009,1 hPa 0,0 l/m 0 min 0 min 179 W/m 16,1 km/h (3 Bft) 100,00 %
24.02.2022 12:22 10,4 C 10,6 C 7,2 C 75 % 1009,2 hPa 0,0 l/m 0 min 0 min 135 W/m 29,0 km/h (5 Bft) 97,87 %
24.02.2022 12:24 10,4 C 10,0 C 6,7 C 73 % 1009,1 hPa 0,0 l/m 0 min 0 min 137 W/m 29,0 km/h (5 Bft) 100,00 %
24.02.2022 12:26 10,3 C 10,0 C 6,7 C 73 % 1009,0 hPa 0,0 l/m 0 min 0 min 169 W/m 25,7 km/h (4 Bft) 97,87 %
24.02.2022 12:28 10,3 C 10,0 C 6,7 C 72 % 1008,9 hPa 0,0 l/m 0 min 0 min 208 W/m 35,4 km/h (5 Bft) 100,00 %
24.02.2022 12:30 10,3 C 10,0 C 6,7 C 72 % 1008,9 hPa 0,0 l/m 0 min 0 min 189 W/m 45,1 km/h (6 Bft) 100,00 %
24.02.2022 12:32 10,2 C 10,0 C 6,7 C 72 % 1009,0 hPa 0,0 l/m 0 min 0 min 187 W/m 45,1 km/h (6 Bft) 97,87 %
24.02.2022 12:34 10,3 C 10,0 C 6,7 C 72 % 1009,0 hPa 0,0 l/m 0 min 0 min 179 W/m 32,2 km/h (5 Bft) 97,87 %
24.02.2022 12:36 10,3 C 10,0 C 6,7 C 72 % 1008,9 hPa 0,0 l/m 0 min 0 min 202 W/m 32,2 km/h (5 Bft) 97,87 %
24.02.2022 12:38 10,3 C 11,1 C 6,7 C 72 % 1008,8 hPa 0,0 l/m 0 min 0 min 237 W/m 32,2 km/h (5 Bft) 97,87 %
24.02.2022 12:40 10,4 C 11,1 C 6,7 C 72 % 1008,8 hPa 0,0 l/m 0 min 0 min 230 W/m 25,7 km/h (4 Bft) 97,37 %
24.02.2022 12:42 10,4 C 11,7 C 7,2 C 72 % 1008,7 hPa 0,0 l/m 0 min 0 min 161 W/m 22,5 km/h (4 Bft) 97,83 %
24.02.2022 12:44 10,5 C 11,7 C 6,7 C 72 % 1008,5 hPa 0,0 l/m 0 min 0 min 165 W/m 38,6 km/h (5 Bft) 97,87 %
24.02.2022 12:46 10,6 C 12,2 C 7,2 C 72 % 1008,5 hPa 0,0 l/m 0 min 0 min 202 W/m 35,4 km/h (5 Bft) 95,74 %
24.02.2022 12:48 10,6 C 12,2 C 7,2 C 71 % 1008,4 hPa 0,0 l/m 2 min 0 min 280 W/m 35,4 km/h (5 Bft) 97,87 %
24.02.2022 12:50 10,7 C 11,7 C 7,2 C 71 % 1008,4 hPa 0,0 l/m 2 min 0 min 504 W/m 41,8 km/h (6 Bft) 97,87 %
24.02.2022 12:52 10,7 C 11,7 C 7,2 C 70 % 1008,4 hPa 0,0 l/m 0 min 0 min 214 W/m 61,2 km/h (7 Bft) 95,74 %
24.02.2022 12:54 10,8 C 13,3 C 7,2 C 71 % 1008,4 hPa 0,0 l/m 2 min 0 min 337 W/m 38,6 km/h (5 Bft) 97,83 %
24.02.2022 12:56 10,8 C 15,6 C 7,2 C 71 % 1008,4 hPa 0,0 l/m 2 min 0 min 588 W/m 35,4 km/h (5 Bft) 97,87 %
24.02.2022 12:58 11,0 C 16,7 C 7,2 C 71 % 1008,3 hPa 0,0 l/m 2 min 0 min 671 W/m 29,0 km/h (5 Bft) 95,74 %
24.02.2022 13:00 11,2 C 15,6 C 7,8 C 71 % 1008,3 hPa 0,0 l/m 2 min 0 min 490 W/m 22,5 km/h (4 Bft) 97,87 %
24.02.2022 13:02 11,3 C 13,9 C 7,8 C 70 % 1008,3 hPa 0,0 l/m 2 min 0 min 307 W/m 35,4 km/h (5 Bft) 95,74 %
24.02.2022 13:04 11,3 C 12,8 C 7,8 C 69 % 1008,3 hPa 0,0 l/m 2 min 0 min 248 W/m 45,1 km/h (6 Bft) 97,87 %
24.02.2022 13:06 11,2 C 11,7 C 7,2 C 68 % 1008,4 hPa 0,0 l/m 0 min 0 min 158 W/m 41,8 km/h (6 Bft) 97,83 %
24.02.2022 13:08 11,1 C 11,1 C 7,2 C 69 % 1008,3 hPa 0,0 l/m 0 min 0 min 119 W/m 41,8 km/h (6 Bft) 97,87 %
24.02.2022 13:10 11,0 C 10,6 C 7,2 C 68 % 1008,3 hPa 0,0 l/m 0 min 0 min 111 W/m 35,4 km/h (5 Bft) 97,96 %
24.02.2022 13:12 10,9 C 10,6 C 6,7 C 68 % 1008,3 hPa 0,0 l/m 0 min 0 min 85 W/m 35,4 km/h (5 Bft) 95,74 %
24.02.2022 13:14 10,8 C 10,0 C 6,7 C 68 % 1008,2 hPa 0,0 l/m 0 min 0 min 113 W/m 29,0 km/h (5 Bft) 97,87 %
24.02.2022 13:16 10,8 C 10,0 C 6,7 C 69 % 1008,2 hPa 0,0 l/m 0 min 0 min 111 W/m 22,5 km/h (4 Bft) 97,83 %
24.02.2022 13:18 10,7 C 10,0 C 6,7 C 69 % 1008,0 hPa 0,0 l/m 0 min 0 min 136 W/m 45,1 km/h (6 Bft) 100,00 %
24.02.2022 13:20 10,7 C 10,0 C 6,7 C 69 % 1008,1 hPa 0,0 l/m 0 min 0 min 152 W/m 45,1 km/h (6 Bft) 100,00 %
24.02.2022 13:22 10,6 C 10,0 C 6,7 C 68 % 1008,0 hPa 0,0 l/m 0 min 0 min 131 W/m 45,1 km/h (6 Bft) 97,87 %
24.02.2022 13:24 10,6 C 10,6 C 6,7 C 69 % 1008,0 hPa 0,0 l/m 0 min 0 min 173 W/m 38,6 km/h (5 Bft) 100,00 %
24.02.2022 13:26 10,6 C 10,6 C 6,7 C 69 % 1008,1 hPa 0,0 l/m 0 min 0 min 187 W/m 25,7 km/h (4 Bft) 100,00 %
24.02.2022 13:28 10,6 C 10,6 C 6,7 C 69 % 1007,9 hPa 0,0 l/m 0 min 0 min 150 W/m 25,7 km/h (4 Bft) 97,83 %
24.02.2022 13:30 10,6 C 10,6 C 6,7 C 69 % 1007,8 hPa 0,0 l/m 0 min 0 min 174 W/m 32,2 km/h (5 Bft) 97,87 %
24.02.2022 13:32 10,6 C 10,6 C 6,7 C 69 % 1007,9 hPa 0,0 l/m 0 min 0 min 190 W/m 38,6 km/h (5 Bft) 97,87 %
24.02.2022 13:34 10,6 C 12,8 C 6,7 C 69 % 1008,0 hPa 0,0 l/m 0 min 0 min 181 W/m 51,5 km/h (7 Bft) 95,74 %
24.02.2022 13:36 10,8 C 12,8 C 7,2 C 69 % 1007,9 hPa 0,0 l/m 2 min 0 min 660 W/m 48,3 km/h (6 Bft) 97,87 %
24.02.2022 13:38 10,8 C 11,7 C 7,2 C 70 % 1007,8 hPa 0,0 l/m 0 min 0 min 183 W/m 29,0 km/h (5 Bft) 97,87 %
24.02.2022 13:40 10,8 C 11,7 C 7,2 C 69 % 1007,7 hPa 0,0 l/m 2 min 0 min 244 W/m 32,2 km/h (5 Bft) 95,65 %
24.02.2022 13:42 10,8 C 13,3 C 7,2 C 69 % 1007,8 hPa 0,0 l/m 2 min 0 min 339 W/m 41,8 km/h (6 Bft) 97,87 %
24.02.2022 13:44 10,9 C 12,8 C 7,2 C 69 % 1007,7 hPa 0,0 l/m 2 min 0 min 486 W/m 41,8 km/h (6 Bft) 95,74 %
24.02.2022 13:46 10,9 C 12,2 C 7,2 C 69 % 1007,6 hPa 0,0 l/m 2 min 0 min 246 W/m 32,2 km/h (5 Bft) 95,74 %
24.02.2022 13:48 10,9 C 14,4 C 7,2 C 68 % 1007,5 hPa 0,0 l/m 0 min 0 min 219 W/m 45,1 km/h (6 Bft) 95,74 %
24.02.2022 13:50 11,1 C 15,0 C 7,2 C 68 % 1007,5 hPa 0,0 l/m 2 min 0 min 538 W/m 41,8 km/h (6 Bft) 97,87 %
24.02.2022 13:52 11,2 C 15,0 C 7,2 C 67 % 1007,5 hPa 0,0 l/m 2 min 0 min 537 W/m 51,5 km/h (7 Bft) 97,83 %
24.02.2022 13:54 11,3 C 15,0 C 7,2 C 67 % 1007,4 hPa 0,0 l/m 2 min 0 min 659 W/m 48,3 km/h (6 Bft) 95,74 %
24.02.2022 13:56 11,3 C 13,3 C 7,2 C 67 % 1007,4 hPa 0,0 l/m 2 min 0 min 329 W/m 45,1 km/h (6 Bft) 97,87 %
24.02.2022 13:58 11,3 C 12,2 C 7,2 C 67 % 1007,4 hPa 0,0 l/m 0 min 0 min 179 W/m 41,8 km/h (6 Bft) 97,87 %
24.02.2022 14:00 11,2 C 11,7 C 7,2 C 67 % 1007,4 hPa 0,0 l/m 0 min 0 min 217 W/m 32,2 km/h (5 Bft) 97,87 %
24.02.2022 14:02 11,2 C 11,7 C 7,2 C 67 % 1007,2 hPa 0,0 l/m 0 min 0 min 201 W/m 35,4 km/h (5 Bft) 100,00 %
24.02.2022 14:04 11,2 C 12,2 C 7,2 C 68 % 1007,1 hPa 0,0 l/m 0 min 0 min 209 W/m 54,7 km/h (7 Bft) 97,83 %
24.02.2022 14:06 11,2 C 13,9 C 7,2 C 67 % 1007,1 hPa 0,0 l/m 2 min 0 min 422 W/m 57,9 km/h (7 Bft) 97,87 %
24.02.2022 14:08 11,3 C 14,4 C 7,2 C 68 % 1007,2 hPa 0,0 l/m 2 min 0 min 521 W/m 38,6 km/h (5 Bft) 95,74 %
24.02.2022 14:10 11,3 C 13,9 C 7,2 C 67 % 1007,2 hPa 0,0 l/m 2 min 0 min 468 W/m 48,3 km/h (6 Bft) 97,87 %
24.02.2022 14:12 11,3 C 12,2 C 7,2 C 67 % 1007,0 hPa 0,0 l/m 2 min 0 min 274 W/m 48,3 km/h (6 Bft) 97,87 %
24.02.2022 14:14 11,2 C 12,2 C 7,2 C 67 % 1007,0 hPa 0,0 l/m 0 min 0 min 179 W/m 38,6 km/h (5 Bft) 97,87 %
24.02.2022 14:16 11,2 C 12,2 C 7,2 C 68 % 1006,9 hPa 0,0 l/m 2 min 0 min 244 W/m 32,2 km/h (5 Bft) 97,83 %
24.02.2022 14:18 11,2 C 12,8 C 7,2 C 68 % 1006,9 hPa 0,0 l/m 2 min 0 min 234 W/m 45,1 km/h (6 Bft) 97,87 %
24.02.2022 14:20 11,2 C 13,3 C 7,2 C 68 % 1006,8 hPa 0,0 l/m 2 min 0 min 460 W/m 57,9 km/h (7 Bft) 97,87 %
24.02.2022 14:22 11,3 C 13,3 C 7,2 C 67 % 1006,8 hPa 0,0 l/m 2 min 0 min 492 W/m 51,5 km/h (7 Bft) 97,87 %
24.02.2022 14:24 11,4 C 13,9 C 7,2 C 68 % 1006,7 hPa 0,0 l/m 2 min 0 min 482 W/m 29,0 km/h (5 Bft) 97,87 %
24.02.2022 14:26 11,5 C 14,4 C 7,2 C 67 % 1006,6 hPa 0,0 l/m 2 min 0 min 478 W/m 48,3 km/h (6 Bft) 97,83 %
24.02.2022 14:28 11,6 C 14,4 C 7,2 C 67 % 1006,5 hPa 0,0 l/m 2 min 0 min 478 W/m 41,8 km/h (6 Bft) 95,74 %
24.02.2022 14:30 11,6 C 15,0 C 7,2 C 67 % 1006,5 hPa 0,0 l/m 2 min 0 min 475 W/m 38,6 km/h (5 Bft) 97,87 %
24.02.2022 14:32 11,7 C 16,1 C 7,2 C 68 % 1006,5 hPa 0,0 l/m 2 min 0 min 472 W/m 19,3 km/h (3 Bft) 95,74 %
24.02.2022 14:34 11,8 C 15,6 C 7,2 C 67 % 1006,5 hPa 0,0 l/m 2 min 0 min 478 W/m 54,7 km/h (7 Bft) 97,87 %
24.02.2022 14:36 11,8 C 15,0 C 7,2 C 66 % 1006,5 hPa 0,0 l/m 2 min 0 min 474 W/m 48,3 km/h (6 Bft) 97,87 %
24.02.2022 14:38 11,8 C 14,4 C 7,2 C 66 % 1006,5 hPa 0,0 l/m 2 min 0 min 448 W/m 67,6 km/h (8 Bft) 97,83 %
24.02.2022 14:40 11,8 C 15,6 C 7,2 C 66 % 1006,5 hPa 0,0 l/m 2 min 0 min 494 W/m 32,2 km/h (5 Bft) 95,74 %
24.02.2022 14:42 11,8 C 16,1 C 7,2 C 66 % 1006,5 hPa 0,0 l/m 2 min 0 min 498 W/m 29,0 km/h (5 Bft) 97,87 %
24.02.2022 14:44 11,9 C 16,7 C 7,8 C 67 % 1006,5 hPa 0,0 l/m 2 min 0 min 514 W/m 22,5 km/h (4 Bft) 97,87 %
24.02.2022 14:46 12,0 C 16,7 C 7,8 C 67 % 1006,5 hPa 0,0 l/m 2 min 0 min 494 W/m 25,7 km/h (4 Bft) 97,87 %
24.02.2022 14:48 12,1 C 15,6 C 7,8 C 66 % 1006,5 hPa 0,0 l/m 2 min 0 min 420 W/m 48,3 km/h (6 Bft) 97,87 %
24.02.2022 14:50 12,1 C 13,9 C 7,8 C 65 % 1006,5 hPa 0,0 l/m 2 min 0 min 449 W/m 38,6 km/h (5 Bft) 97,83 %
24.02.2022 14:52 11,9 C 12,2 C 7,8 C 65 % 1006,5 hPa 0,0 l/m 2 min 0 min 222 W/m 54,7 km/h (7 Bft) 97,87 %
24.02.2022 14:54 11,8 C 12,2 C 7,8 C 65 % 1006,4 hPa 0,0 l/m 2 min 0 min 309 W/m 61,2 km/h (7 Bft) 100,00 %
24.02.2022 14:56 11,7 C 11,7 C 7,2 C 66 % 1006,3 hPa 0,0 l/m 2 min 0 min 200 W/m 61,2 km/h (7 Bft) 97,87 %
24.02.2022 14:58 11,6 C 11,7 C 7,2 C 66 % 1006,2 hPa 0,0 l/m 0 min 0 min 189 W/m 29,0 km/h (5 Bft) 97,87 %
24.02.2022 15:00 11,6 C 12,8 C 7,8 C 67 % 1006,3 hPa 0,0 l/m 2 min 0 min 274 W/m 38,6 km/h (5 Bft) 97,87 %
24.02.2022 15:02 11,6 C 12,2 C 7,8 C 66 % 1006,3 hPa 0,0 l/m 2 min 0 min 282 W/m 41,8 km/h (6 Bft) 97,83 %
24.02.2022 15:04 11,5 C 11,7 C 7,8 C 67 % 1006,4 hPa 0,0 l/m 0 min 0 min 179 W/m 41,8 km/h (6 Bft) 97,87 %
24.02.2022 15:06 11,5 C 11,7 C 7,2 C 67 % 1006,1 hPa 0,0 l/m 0 min 0 min 166 W/m 32,2 km/h (5 Bft) 97,87 %
24.02.2022 15:08 11,5 C 11,1 C 7,2 C 67 % 1006,2 hPa 0,0 l/m 0 min 0 min 123 W/m 25,7 km/h (4 Bft) 95,74 %
24.02.2022 15:10 11,4 C 11,1 C 7,2 C 67 % 1006,1 hPa 0,0 l/m 0 min 0 min 78 W/m 45,1 km/h (6 Bft) 95,74 %
24.02.2022 15:12 11,3 C 10,6 C 7,2 C 67 % 1006,1 hPa 0,0 l/m 0 min 0 min 63 W/m 35,4 km/h (5 Bft) 97,87 %
24.02.2022 15:14 11,3 C 10,6 C 7,2 C 68 % 1006,1 hPa 0,0 l/m 0 min 0 min 69 W/m 32,2 km/h (5 Bft) 95,65 %
24.02.2022 15:16 11,2 C 10,6 C 7,2 C 67 % 1006,0 hPa 0,0 l/m 0 min 0 min 68 W/m 45,1 km/h (6 Bft) 97,87 %
24.02.2022 15:18 11,2 C 10,6 C 7,2 C 68 % 1006,0 hPa 0,0 l/m 0 min 0 min 75 W/m 38,6 km/h (5 Bft) 97,87 %
24.02.2022 15:20 11,2 C 10,6 C 7,2 C 68 % 1005,9 hPa 0,0 l/m 0 min 0 min 102 W/m 51,5 km/h (7 Bft) 95,74 %
24.02.2022 15:22 11,2 C 10,6 C 7,2 C 68 % 1005,9 hPa 0,0 l/m 0 min 0 min 84 W/m 29,0 km/h (5 Bft) 97,87 %
24.02.2022 15:24 11,2 C 10,6 C 7,2 C 68 % 1005,9 hPa 0,0 l/m 0 min 0 min 73 W/m 38,6 km/h (5 Bft) 95,65 %
24.02.2022 15:26 11,2 C 10,6 C 7,2 C 69 % 1005,8 hPa 0,0 l/m 0 min 0 min 66 W/m 29,0 km/h (5 Bft) 97,87 %
24.02.2022 15:28 11,2 C 10,6 C 7,2 C 69 % 1005,6 hPa 0,0 l/m 0 min 0 min 72 W/m 32,2 km/h (5 Bft) 97,87 %
24.02.2022 15:30 11,2 C 10,6 C 7,2 C 69 % 1005,7 hPa 0,0 l/m 0 min 0 min 73 W/m 29,0 km/h (5 Bft) 97,87 %
24.02.2022 15:32 11,2 C 10,6 C 7,2 C 69 % 1005,7 hPa 0,0 l/m 0 min 0 min 55 W/m 29,0 km/h (5 Bft) 97,87 %
24.02.2022 15:34 11,1 C 10,6 C 7,2 C 69 % 1005,7 hPa 0,0 l/m 0 min 0 min 34 W/m 35,4 km/h (5 Bft) 97,87 %
24.02.2022 15:36 11,1 C 10,6 C 6,7 C 69 % 1005,7 hPa 0,0 l/m 0 min 0 min 30 W/m 35,4 km/h (5 Bft) 97,83 %
24.02.2022 15:38 11,1 C 10,6 C 6,7 C 69 % 1005,6 hPa 0,0 l/m 0 min 0 min 30 W/m 48,3 km/h (6 Bft) 95,74 %
24.02.2022 15:40 11,0 C 10,6 C 6,7 C 69 % 1005,5 hPa 0,0 l/m 0 min 0 min 32 W/m 54,7 km/h (7 Bft) 98,15 %
24.02.2022 15:42 11,0 C 10,6 C 6,7 C 69 % 1005,5 hPa 0,0 l/m 0 min 0 min 52 W/m 48,3 km/h (6 Bft) 97,87 %
24.02.2022 15:44 10,9 C 10,6 C 6,7 C 70 % 1005,4 hPa 0,0 l/m 0 min 0 min 87 W/m 45,1 km/h (6 Bft) 97,87 %
24.02.2022 15:46 10,9 C 10,6 C 6,7 C 70 % 1005,4 hPa 0,0 l/m 0 min 0 min 85 W/m 38,6 km/h (5 Bft) 97,83 %
24.02.2022 15:48 10,9 C 10,6 C 6,7 C 70 % 1005,5 hPa 0,0 l/m 0 min 0 min 71 W/m 22,5 km/h (4 Bft) 95,74 %
24.02.2022 15:50 10,9 C 10,6 C 6,7 C 71 % 1005,4 hPa 0,0 l/m 0 min 2 min 45 W/m 25,7 km/h (4 Bft) 95,74 %
24.02.2022 15:52 10,9 C 10,0 C 5,6 C 72 % 1006,2 hPa 0,0 l/m 0 min 2 min 24 W/m 51,5 km/h (7 Bft) 93,62 %
24.02.2022 15:54 10,6 C 8,3 C 4,4 C 77 % 1007,2 hPa 0,2 l/m 0 min 2 min 11 W/m 41,8 km/h (6 Bft) 95,74 %
24.02.2022 15:56 9,3 C 5,6 C 2,2 C 77 % 1007,4 hPa 0,2 l/m 0 min 2 min 16 W/m 41,8 km/h (6 Bft) 95,74 %
24.02.2022 15:58 8,1 C 5,0 C 1,7 C 79 % 1007,6 hPa 0,2 l/m 0 min 2 min 25 W/m 41,8 km/h (6 Bft) 97,83 %
24.02.2022 16:00 7,3 C 5,0 C 1,1 C 82 % 1007,6 hPa 0,0 l/m 0 min 2 min 26 W/m 38,6 km/h (5 Bft) 97,87 %
24.02.2022 16:02 6,7 C 5,0 C 1,1 C 84 % 1007,7 hPa 0,0 l/m 0 min 2 min 26 W/m 35,4 km/h (5 Bft) 97,92 %
24.02.2022 16:04 6,3 C 5,0 C 1,1 C 85 % 1007,9 hPa 0,2 l/m 0 min 2 min 28 W/m 54,7 km/h (7 Bft) 97,87 %
24.02.2022 16:06 6,1 C 5,0 C 1,1 C 86 % 1007,9 hPa 0,0 l/m 0 min 2 min 26 W/m 54,7 km/h (7 Bft) 97,87 %
24.02.2022 16:08 5,9 C 5,0 C 1,1 C 87 % 1008,0 hPa 0,0 l/m 0 min 2 min 31 W/m 32,2 km/h (5 Bft) 97,87 %
24.02.2022 16:10 5,7 C 5,0 C 1,1 C 87 % 1008,1 hPa 0,0 l/m 0 min 2 min 29 W/m 38,6 km/h (5 Bft) 97,37 %
24.02.2022 16:12 5,7 C 5,0 C 1,1 C 88 % 1008,2 hPa 0,0 l/m 0 min 2 min 23 W/m 35,4 km/h (5 Bft) 97,83 %
24.02.2022 16:14 5,6 C 5,0 C 1,1 C 88 % 1008,3 hPa 0,0 l/m 0 min 2 min 19 W/m 38,6 km/h (5 Bft) 97,87 %
24.02.2022 16:16 5,6 C 5,0 C 1,1 C 89 % 1008,3 hPa 0,0 l/m 0 min 2 min 21 W/m 32,2 km/h (5 Bft) 100,00 %
24.02.2022 16:18 5,6 C 5,0 C 1,1 C 89 % 1008,4 hPa 0,0 l/m 0 min 2 min 19 W/m 32,2 km/h (5 Bft) 100,00 %
24.02.2022 16:20 5,6 C 5,0 C 1,1 C 89 % 1008,5 hPa 0,0 l/m 0 min 2 min 20 W/m 29,0 km/h (5 Bft) 100,00 %
24.02.2022 16:22 5,6 C 5,0 C 1,1 C 90 % 1008,4 hPa 0,2 l/m 0 min 2 min 23 W/m 29,0 km/h (5 Bft) 100,00 %
24.02.2022 16:24 5,5 C 5,0 C 1,1 C 90 % 1008,5 hPa 0,0 l/m 0 min 2 min 25 W/m 38,6 km/h (5 Bft) 100,00 %
24.02.2022 16:26 5,4 C 5,0 C 1,1 C 90 % 1008,5 hPa 0,0 l/m 0 min 2 min 29 W/m 38,6 km/h (5 Bft) 100,00 %
24.02.2022 16:28 5,5 C 5,0 C 1,1 C 90 % 1008,6 hPa 0,0 l/m 0 min 2 min 31 W/m 35,4 km/h (5 Bft) 100,00 %
24.02.2022 16:30 5,4 C 5,0 C 1,1 C 90 % 1008,6 hPa 0,0 l/m 0 min 2 min 28 W/m 35,4 km/h (5 Bft) 100,00 %
24.02.2022 16:32 5,4 C 5,0 C 1,1 C 91 % 1008,8 hPa 0,2 l/m 0 min 2 min 22 W/m 35,4 km/h (5 Bft) 100,00 %
24.02.2022 16:34 5,4 C 5,0 C 1,1 C 91 % 1008,9 hPa 0,0 l/m 0 min 2 min 19 W/m 29,0 km/h (5 Bft) 100,00 %
24.02.2022 16:36 5,4 C 5,0 C 1,1 C 91 % 1009,0 hPa 0,0 l/m 0 min 2 min 19 W/m 29,0 km/h (5 Bft) 100,00 %
24.02.2022 16:38 5,4 C 5,0 C 1,1 C 91 % 1009,0 hPa 0,0 l/m 0 min 2 min 21 W/m 22,5 km/h (4 Bft) 100,00 %
24.02.2022 16:40 5,4 C 5,0 C 1,1 C 91 % 1009,1 hPa 0,0 l/m 0 min 2 min 19 W/m 16,1 km/h (3 Bft) 51,22 %
24.02.2022 16:42 5,3 C 5,0 C 1,1 C 92 % 1009,1 hPa 0,2 l/m 0 min 2 min 19 W/m 22,5 km/h (4 Bft) 100,00 %
24.02.2022 16:44 5,3 C 5,0 C 1,1 C 91 % 1009,1 hPa 0,0 l/m 0 min 2 min 18 W/m 35,4 km/h (5 Bft) 100,00 %
24.02.2022 16:46 5,3 C 4,4 C 1,1 C 92 % 1009,1 hPa 0,0 l/m 0 min 2 min 20 W/m 19,3 km/h (3 Bft) 98,08 %
24.02.2022 16:48 5,2 C 4,4 C 1,1 C 91 % 1009,0 hPa 0,2 l/m 0 min 2 min 25 W/m 25,7 km/h (4 Bft) 97,87 %
24.02.2022 16:50 5,2 C 4,4 C 1,1 C 91 % 1009,0 hPa 0,0 l/m 0 min 2 min 21 W/m 35,4 km/h (5 Bft) 97,87 %
24.02.2022 16:52 5,2 C 4,4 C 1,1 C 91 % 1008,9 hPa 0,0 l/m 0 min 2 min 19 W/m 12,9 km/h (3 Bft) 97,87 %
24.02.2022 16:54 5,2 C 4,4 C 1,1 C 91 % 1008,8 hPa 0,0 l/m 0 min 2 min 21 W/m 12,9 km/h (3 Bft) 100,00 %
24.02.2022 16:56 5,2 C 4,4 C 1,1 C 91 % 1008,9 hPa 0,0 l/m 0 min 2 min 22 W/m 12,9 km/h (3 Bft) 100,00 %
24.02.2022 16:58 5,2 C 4,4 C 1,1 C 92 % 1009,0 hPa 0,0 l/m 0 min 0 min 29 W/m 6,4 km/h (2 Bft) 97,87 %
24.02.2022 17:00 5,2 C 4,4 C 1,1 C 92 % 1009,2 hPa 0,0 l/m 0 min 2 min 31 W/m 12,9 km/h (3 Bft) 97,87 %
24.02.2022 17:02 5,2 C 4,4 C 1,1 C 92 % 1009,2 hPa 0,0 l/m 0 min 2 min 27 W/m 22,5 km/h (4 Bft) 100,00 %
24.02.2022 17:04 5,2 C 4,4 C 1,1 C 92 % 1009,1 hPa 0,0 l/m 0 min 0 min 25 W/m 12,9 km/h (3 Bft) 97,87 %
24.02.2022 17:06 5,2 C 4,4 C 1,1 C 92 % 1009,2 hPa 0,0 l/m 0 min 0 min 23 W/m 25,7 km/h (4 Bft) 97,87 %
24.02.2022 17:08 5,2 C 4,4 C 1,1 C 92 % 1009,2 hPa 0,0 l/m 0 min 2 min 24 W/m 16,1 km/h (3 Bft) 97,83 %
24.02.2022 17:10 5,3 C 4,4 C 1,1 C 92 % 1009,1 hPa 0,0 l/m 0 min 0 min 28 W/m 16,1 km/h (3 Bft) 97,37 %
24.02.2022 17:12 5,3 C 4,4 C 1,1 C 92 % 1009,3 hPa 0,0 l/m 0 min 0 min 25 W/m 12,9 km/h (3 Bft) 97,87 %
24.02.2022 17:14 5,2 C 4,4 C 1,1 C 92 % 1009,3 hPa 0,0 l/m 0 min 0 min 23 W/m 22,5 km/h (4 Bft) 97,87 %
24.02.2022 17:16 5,2 C 4,4 C 1,1 C 92 % 1009,3 hPa 0,0 l/m 0 min 0 min 20 W/m 12,9 km/h (3 Bft) 97,87 %
24.02.2022 17:18 5,3 C 4,4 C 1,1 C 92 % 1009,4 hPa 0,0 l/m 0 min 0 min 16 W/m 16,1 km/h (3 Bft) 97,87 %
24.02.2022 17:20 5,2 C 4,4 C 1,1 C 92 % 1009,4 hPa 0,0 l/m 0 min 0 min 13 W/m 12,9 km/h (3 Bft) 97,87 %
24.02.2022 17:22 5,2 C 4,4 C 1,1 C 92 % 1009,6 hPa 0,0 l/m 0 min 0 min 12 W/m 19,3 km/h (3 Bft) 97,83 %
24.02.2022 17:24 5,2 C 4,4 C 1,1 C 92 % 1009,8 hPa 0,0 l/m 0 min 0 min 10 W/m 16,1 km/h (3 Bft) 97,87 %
24.02.2022 17:26 5,2 C 4,4 C 1,1 C 92 % 1009,8 hPa 0,0 l/m 0 min 0 min 8 W/m 19,3 km/h (3 Bft) 97,87 %
24.02.2022 17:28 5,3 C 4,4 C 1,1 C 92 % 1009,9 hPa 0,0 l/m 0 min 0 min 7 W/m 16,1 km/h (3 Bft) 95,74 %
24.02.2022 17:30 5,2 C 4,4 C 1,1 C 92 % 1009,9 hPa 0,0 l/m 0 min 0 min 7 W/m 19,3 km/h (3 Bft) 95,74 %
24.02.2022 17:32 5,2 C 4,4 C 1,1 C 92 % 1009,9 hPa 0,0 l/m 0 min 0 min 8 W/m 12,9 km/h (3 Bft) 95,74 %
24.02.2022 17:34 5,2 C 4,4 C 1,1 C 92 % 1009,9 hPa 0,0 l/m 0 min 0 min 9 W/m 16,1 km/h (3 Bft) 93,48 %
24.02.2022 17:36 5,2 C 4,4 C 1,1 C 92 % 1010,0 hPa 0,0 l/m 0 min 0 min 9 W/m 12,9 km/h (3 Bft) 95,74 %
24.02.2022 17:38 5,2 C 4,4 C 1,1 C 92 % 1010,1 hPa 0,0 l/m 0 min 0 min 7 W/m 22,5 km/h (4 Bft) 95,83 %
24.02.2022 17:40 5,2 C 4,4 C 1,1 C 92 % 1010,2 hPa 0,0 l/m 0 min 0 min 7 W/m 19,3 km/h (3 Bft) 95,74 %
24.02.2022 17:42 5,2 C 4,4 C 1,1 C 92 % 1010,2 hPa 0,0 l/m 0 min 0 min 7 W/m 16,1 km/h (3 Bft) 95,74 %
24.02.2022 17:44 5,2 C 4,4 C 1,1 C 92 % 1010,3 hPa 0,0 l/m 0 min 0 min 7 W/m 22,5 km/h (4 Bft) 95,74 %
24.02.2022 17:46 5,1 C 4,4 C 1,1 C 91 % 1010,3 hPa 0,0 l/m 0 min 0 min 9 W/m 16,1 km/h (3 Bft) 91,30 %
24.02.2022 17:48 5,1 C 4,4 C 1,1 C 91 % 1010,2 hPa 0,0 l/m 0 min 0 min 13 W/m 25,7 km/h (4 Bft) 95,74 %
24.02.2022 17:50 5,1 C 4,4 C 1,1 C 91 % 1010,3 hPa 0,0 l/m 0 min 0 min 14 W/m 19,3 km/h (3 Bft) 97,87 %
24.02.2022 17:52 5,1 C 4,4 C 1,1 C 91 % 1010,5 hPa 0,0 l/m 0 min 0 min 12 W/m 16,1 km/h (3 Bft) 95,74 %
24.02.2022 17:54 5,2 C 4,4 C 1,1 C 91 % 1010,6 hPa 0,0 l/m 0 min 0 min 11 W/m 16,1 km/h (3 Bft) 97,87 %
24.02.2022 17:56 5,2 C 4,4 C 1,1 C 91 % 1010,6 hPa 0,0 l/m 0 min 0 min 10 W/m 12,9 km/h (3 Bft) 97,83 %
24.02.2022 17:58 5,2 C 4,4 C 1,1 C 91 % 1010,6 hPa 0,0 l/m 0 min 0 min 8 W/m 19,3 km/h (3 Bft) 100,00 %
24.02.2022 18:00 5,2 C 4,4 C 1,1 C 91 % 1010,7 hPa 0,0 l/m 0 min 0 min 6 W/m 16,1 km/h (3 Bft) 100,00 %
24.02.2022 18:02 5,1 C 4,4 C 1,1 C 91 % 1010,6 hPa 0,0 l/m 0 min 0 min 5 W/m 16,1 km/h (3 Bft) 100,00 %
24.02.2022 18:04 5,1 C 4,4 C 1,1 C 91 % 1010,6 hPa 0,0 l/m 0 min 0 min 1 W/m 16,1 km/h (3 Bft) 100,00 %
24.02.2022 18:08 5,1 C 4,4 C 1,1 C 91 % 1010,7 hPa 0,0 l/m 0 min 0 min 0 W/m 12,9 km/h (3 Bft) 100,00 %
24.02.2022 18:10 5,1 C 4,4 C 1,1 C 91 % 1010,6 hPa 0,0 l/m 0 min 0 min 0 W/m 12,9 km/h (3 Bft) 100,00 %
24.02.2022 18:12 5,1 C 4,4 C 1,1 C 91 % 1010,5 hPa 0,0 l/m 0 min 0 min 0 W/m 19,3 km/h (3 Bft) 100,00 %
24.02.2022 18:14 5,1 C 4,4 C 1,1 C 91 % 1010,6 hPa 0,0 l/m 0 min 0 min 0 W/m 12,9 km/h (3 Bft) 97,87 %
24.02.2022 18:16 5,0 C 4,4 C 1,1 C 91 % 1010,7 hPa 0,0 l/m 0 min 0 min 0 W/m 16,1 km/h (3 Bft) 97,87 %
24.02.2022 18:18 5,0 C 4,4 C 1,1 C 91 % 1010,9 hPa 0,0 l/m 0 min 0 min 0 W/m 12,9 km/h (3 Bft) 95,74 %
24.02.2022 18:20 5,0 C 4,4 C 1,1 C 91 % 1010,9 hPa 0,0 l/m 0 min 0 min 0 W/m 12,9 km/h (3 Bft) 100,00 %
24.02.2022 18:22 4,9 C 4,4 C 1,1 C 91 % 1010,9 hPa 0,0 l/m 0 min 0 min 0 W/m 12,9 km/h (3 Bft) 100,00 %
24.02.2022 18:24 4,9 C 4,4 C 1,1 C 91 % 1010,8 hPa 0,0 l/m 0 min 0 min 0 W/m 16,1 km/h (3 Bft) 100,00 %
24.02.2022 18:26 4,9 C 4,4 C 1,1 C 91 % 1010,8 hPa 0,0 l/m 0 min 0 min 0 W/m 12,9 km/h (3 Bft) 97,87 %
24.02.2022 18:28 4,9 C 4,4 C 1,1 C 91 % 1010,8 hPa 0,0 l/m 0 min 0 min 0 W/m 12,9 km/h (3 Bft) 100,00 %
24.02.2022 18:30 4,8 C 3,9 C 1,1 C 91 % 1010,8 hPa 0,0 l/m 0 min 0 min 0 W/m 16,1 km/h (3 Bft) 97,87 %
24.02.2022 18:32 4,8 C 3,9 C 1,1 C 91 % 1010,8 hPa 0,0 l/m 0 min 0 min 0 W/m 12,9 km/h (3 Bft) 100,00 %
24.02.2022 18:34 4,8 C 3,9 C 1,1 C 91 % 1010,9 hPa 0,0 l/m 0 min 0 min 0 W/m 12,9 km/h (3 Bft) 100,00 %
24.02.2022 18:36 4,8 C 3,9 C 1,1 C 91 % 1011,0 hPa 0,0 l/m 0 min 0 min 0 W/m 22,5 km/h (4 Bft) 93,62 %
24.02.2022 18:38 4,8 C 3,9 C 1,1 C 91 % 1011,0 hPa 0,0 l/m 0 min 0 min 0 W/m 16,1 km/h (3 Bft) 97,87 %
24.02.2022 18:40 4,7 C 3,9 C 1,1 C 91 % 1011,0 hPa 0,0 l/m 0 min 0 min 0 W/m 19,3 km/h (3 Bft) 97,87 %
24.02.2022 18:42 4,7 C 3,9 C 1,1 C 91 % 1011,2 hPa 0,0 l/m 0 min 0 min 0 W/m 16,1 km/h (3 Bft) 97,87 %
24.02.2022 18:44 4,7 C 3,9 C 1,1 C 91 % 1011,3 hPa 0,0 l/m 0 min 0 min 0 W/m 22,5 km/h (4 Bft) 97,83 %
24.02.2022 18:46 4,7 C 3,9 C 1,1 C 92 % 1011,4 hPa 0,0 l/m 0 min 0 min 0 W/m 9,7 km/h (2 Bft) 97,87 %
24.02.2022 18:48 4,7 C 3,9 C 1,1 C 92 % 1011,5 hPa 0,0 l/m 0 min 2 min 0 W/m 22,5 km/h (4 Bft) 97,87 %
24.02.2022 18:50 4,7 C 3,9 C 1,1 C 92 % 1011,6 hPa 0,0 l/m 0 min 2 min 0 W/m 16,1 km/h (3 Bft) 95,74 %
24.02.2022 18:52 4,7 C 3,9 C 1,1 C 92 % 1011,6 hPa 0,0 l/m 0 min 2 min 0 W/m 16,1 km/h (3 Bft) 97,87 %
24.02.2022 18:54 4,7 C 3,9 C 1,1 C 92 % 1011,6 hPa 0,2 l/m 0 min 2 min 0 W/m 16,1 km/h (3 Bft) 97,83 %
24.02.2022 18:56 4,7 C 3,9 C 1,1 C 92 % 1011,6 hPa 0,2 l/m 0 min 2 min 0 W/m 19,3 km/h (3 Bft) 91,49 %
24.02.2022 18:58 4,7 C 3,9 C 1,1 C 92 % 1011,7 hPa 0,0 l/m 0 min 2 min 0 W/m 9,7 km/h (2 Bft) 97,87 %
24.02.2022 19:00 4,6 C 3,9 C 0,6 C 92 % 1011,6 hPa 0,2 l/m 0 min 2 min 0 W/m 16,1 km/h (3 Bft) 97,87 %
24.02.2022 19:02 4,6 C 3,9 C 0,6 C 92 % 1011,7 hPa 0,0 l/m 0 min 2 min 0 W/m 12,9 km/h (3 Bft) 97,92 %
24.02.2022 19:04 4,6 C 3,3 C 0,6 C 92 % 1011,6 hPa 0,0 l/m 0 min 2 min 0 W/m 9,7 km/h (2 Bft) 97,87 %
24.02.2022 19:06 4,6 C 3,3 C 0,6 C 93 % 1011,8 hPa 0,2 l/m 0 min 2 min 0 W/m 6,4 km/h (2 Bft) 95,65 %
24.02.2022 19:08 4,6 C 3,3 C 0,6 C 93 % 1011,8 hPa 0,0 l/m 0 min 0 min 0 W/m 6,4 km/h (2 Bft) 93,62 %
24.02.2022 19:10 4,6 C 3,3 C 0,6 C 93 % 1011,8 hPa 0,0 l/m 0 min 0 min 0 W/m 3,2 km/h (1 Bft) 95,83 %
24.02.2022 19:12 4,6 C 3,3 C 0,6 C 93 % 1011,9 hPa 0,0 l/m 0 min 0 min 0 W/m 6,4 km/h (2 Bft) 95,74 %
24.02.2022 19:14 4,6 C 3,3 C 0,6 C 93 % 1012,0 hPa 0,0 l/m 0 min 0 min 0 W/m 6,4 km/h (2 Bft) 95,74 %
24.02.2022 19:16 4,5 C 3,3 C 0,6 C 93 % 1012,0 hPa 0,0 l/m 0 min 0 min 0 W/m 12,9 km/h (3 Bft) 93,48 %
24.02.2022 19:18 4,5 C 3,9 C 0,6 C 93 % 1012,0 hPa 0,0 l/m 0 min 0 min 0 W/m 16,1 km/h (3 Bft) 95,74 %
24.02.2022 19:20 4,5 C 3,9 C 0,6 C 93 % 1012,0 hPa 0,0 l/m 0 min 0 min 0 W/m 12,9 km/h (3 Bft) 95,74 %
24.02.2022 19:22 4,5 C 3,9 C 0,6 C 93 % 1012,0 hPa 0,0 l/m 0 min 0 min 0 W/m 9,7 km/h (2 Bft) 95,74 %
24.02.2022 19:24 4,5 C 3,9 C 0,6 C 93 % 1012,1 hPa 0,0 l/m 0 min 0 min 0 W/m 12,9 km/h (3 Bft) 93,62 %
24.02.2022 19:26 4,5 C 3,9 C 0,6 C 93 % 1012,1 hPa 0,0 l/m 0 min 0 min 0 W/m 16,1 km/h (3 Bft) 91,49 %
24.02.2022 19:28 4,5 C 3,9 C 0,6 C 93 % 1012,0 hPa 0,0 l/m 0 min 0 min 0 W/m 12,9 km/h (3 Bft) 95,74 %
24.02.2022 19:30 4,6 C 3,9 C 0,6 C 93 % 1012,0 hPa 0,0 l/m 0 min 0 min 0 W/m 9,7 km/h (2 Bft) 95,65 %
24.02.2022 19:32 4,6 C 3,9 C 0,6 C 93 % 1012,0 hPa 0,0 l/m 0 min 0 min 0 W/m 16,1 km/h (3 Bft) 91,49 %
24.02.2022 19:34 4,6 C 3,9 C 0,6 C 93 % 1012,1 hPa 0,0 l/m 0 min 0 min 0 W/m 9,7 km/h (2 Bft) 93,62 %
24.02.2022 19:36 4,6 C 3,9 C 0,6 C 93 % 1012,1 hPa 0,0 l/m 0 min 0 min 0 W/m 16,1 km/h (3 Bft) 93,62 %
24.02.2022 19:38 4,5 C 3,9 C 0,6 C 93 % 1012,1 hPa 0,0 l/m 0 min 0 min 0 W/m 16,1 km/h (3 Bft) 95,74 %
24.02.2022 19:40 4,5 C 3,9 C 0,6 C 93 % 1012,1 hPa 0,0 l/m 0 min 0 min 0 W/m 12,9 km/h (3 Bft) 95,65 %
24.02.2022 19:42 4,5 C 3,9 C 0,6 C 93 % 1012,1 hPa 0,0 l/m 0 min 0 min 0 W/m 9,7 km/h (2 Bft) 93,62 %
24.02.2022 19:44 4,6 C 3,9 C 0,6 C 93 % 1012,0 hPa 0,0 l/m 0 min 0 min 0 W/m 6,4 km/h (2 Bft) 95,74 %
24.02.2022 19:46 4,6 C 3,9 C 0,6 C 93 % 1012,2 hPa 0,0 l/m 0 min 0 min 0 W/m 22,5 km/h (4 Bft) 97,87 %
24.02.2022 19:48 4,5 C 3,9 C 0,6 C 93 % 1012,1 hPa 0,0 l/m 0 min 0 min 0 W/m 12,9 km/h (3 Bft) 97,87 %
24.02.2022 19:50 4,5 C 3,9 C 0,6 C 93 % 1012,1 hPa 0,0 l/m 0 min 0 min 0 W/m 22,5 km/h (4 Bft) 97,87 %
24.02.2022 19:52 4,6 C 3,9 C 0,6 C 92 % 1012,1 hPa 0,0 l/m 0 min 0 min 0 W/m 12,9 km/h (3 Bft) 97,83 %
24.02.2022 19:54 4,6 C 3,9 C 0,6 C 92 % 1012,2 hPa 0,0 l/m 0 min 0 min 0 W/m 9,7 km/h (2 Bft) 97,87 %
24.02.2022 19:56 4,6 C 3,9 C 0,6 C 92 % 1012,2 hPa 0,0 l/m 0 min 0 min 0 W/m 16,1 km/h (3 Bft) 97,87 %
24.02.2022 19:58 4,6 C 3,9 C 0,6 C 92 % 1012,3 hPa 0,0 l/m 0 min 0 min 0 W/m 16,1 km/h (3 Bft) 97,87 %
24.02.2022 20:00 4,6 C 3,9 C 0,6 C 92 % 1012,3 hPa 0,0 l/m 0 min 2 min 0 W/m 16,1 km/h (3 Bft) 95,74 %
24.02.2022 20:02 4,6 C 3,9 C 0,6 C 92 % 1012,3 hPa 0,0 l/m 0 min 2 min 0 W/m 12,9 km/h (3 Bft) 97,87 %
24.02.2022 20:04 4,6 C 3,9 C 0,6 C 92 % 1012,4 hPa 0,0 l/m 0 min 2 min 0 W/m 12,9 km/h (3 Bft) 97,83 %
24.02.2022 20:06 4,6 C 3,9 C 0,6 C 92 % 1012,4 hPa 0,0 l/m 0 min 0 min 0 W/m 12,9 km/h (3 Bft) 97,87 %
24.02.2022 20:08 4,6 C 3,9 C 0,6 C 92 % 1012,5 hPa 0,0 l/m 0 min 0 min 0 W/m 12,9 km/h (3 Bft) 97,87 %
24.02.2022 20:10 4,6 C 3,9 C 0,6 C 92 % 1012,7 hPa 0,0 l/m 0 min 0 min 0 W/m 12,9 km/h (3 Bft) 100,00 %
24.02.2022 20:12 4,6 C 3,9 C 0,6 C 92 % 1012,7 hPa 0,0 l/m 0 min 2 min 0 W/m 25,7 km/h (4 Bft) 100,00 %
24.02.2022 20:14 4,4 C 3,3 C 0,0 C 92 % 1012,7 hPa 0,0 l/m 0 min 2 min 0 W/m 22,5 km/h (4 Bft) 100,00 %
24.02.2022 20:16 4,2 C 3,3 C 0,0 C 92 % 1012,6 hPa 0,0 l/m 0 min 2 min 0 W/m 12,9 km/h (3 Bft) 100,00 %
24.02.2022 20:18 4,1 C 3,3 C 0,0 C 91 % 1012,7 hPa 0,0 l/m 0 min 0 min 0 W/m 12,9 km/h (3 Bft) 100,00 %
24.02.2022 20:20 3,9 C 3,3 C 0,0 C 91 % 1012,6 hPa 0,2 l/m 0 min 0 min 0 W/m 9,7 km/h (2 Bft) 100,00 %
24.02.2022 20:22 3,8 C 3,3 C 0,0 C 91 % 1012,7 hPa 0,0 l/m 0 min 0 min 0 W/m 19,3 km/h (3 Bft) 100,00 %
24.02.2022 20:24 3,8 C 3,3 C 0,0 C 91 % 1012,7 hPa 0,0 l/m 0 min 0 min 0 W/m 9,7 km/h (2 Bft) 100,00 %
24.02.2022 20:26 3,8 C 3,3 C 0,0 C 91 % 1012,8 hPa 0,0 l/m 0 min 2 min 0 W/m 9,7 km/h (2 Bft) 100,00 %
24.02.2022 20:28 3,8 C 3,3 C 0,0 C 91 % 1012,8 hPa 0,0 l/m 0 min 2 min 0 W/m 12,9 km/h (3 Bft) 100,00 %
24.02.2022 20:30 3,8 C 3,3 C 0,0 C 91 % 1012,9 hPa 0,0 l/m 0 min 2 min 0 W/m 9,7 km/h (2 Bft) 100,00 %
24.02.2022 20:32 3,8 C 3,3 C 0,0 C 91 % 1013,0 hPa 0,0 l/m 0 min 2 min 0 W/m 6,4 km/h (2 Bft) 100,00 %
24.02.2022 20:34 3,8 C 3,3 C 0,0 C 92 % 1012,9 hPa 0,0 l/m 0 min 2 min 0 W/m 19,3 km/h (3 Bft) 100,00 %
24.02.2022 20:36 3,8 C 3,3 C 0,0 C 92 % 1013,0 hPa 0,0 l/m 0 min 2 min 0 W/m 6,4 km/h (2 Bft) 97,83 %
24.02.2022 20:38 3,9 C 3,3 C 0,0 C 92 % 1013,0 hPa 0,0 l/m 0 min 2 min 0 W/m 9,7 km/h (2 Bft) 100,00 %
24.02.2022 20:40 4,0 C 3,3 C 0,0 C 92 % 1013,1 hPa 0,0 l/m 0 min 2 min 0 W/m 25,7 km/h (4 Bft) 97,92 %
24.02.2022 20:42 4,1 C 3,3 C 0,0 C 92 % 1013,0 hPa 0,0 l/m 0 min 2 min 0 W/m 12,9 km/h (3 Bft) 100,00 %
24.02.2022 20:44 4,1 C 3,3 C 0,0 C 92 % 1013,0 hPa 0,0 l/m 0 min 2 min 0 W/m 16,1 km/h (3 Bft) 100,00 %
24.02.2022 20:46 4,1 C 3,3 C 0,0 C 92 % 1012,9 hPa 0,0 l/m 0 min 2 min 0 W/m 22,5 km/h (4 Bft) 97,87 %
24.02.2022 20:48 4,1 C 3,3 C 0,0 C 91 % 1013,0 hPa 0,0 l/m 0 min 2 min 0 W/m 22,5 km/h (4 Bft) 100,00 %
24.02.2022 20:50 4,1 C 3,3 C 0,0 C 91 % 1013,0 hPa 0,0 l/m 0 min 2 min 0 W/m 16,1 km/h (3 Bft) 97,83 %
24.02.2022 20:52 4,0 C 3,3 C 0,0 C 91 % 1013,0 hPa 0,0 l/m 0 min 2 min 0 W/m 16,1 km/h (3 Bft) 97,87 %
24.02.2022 20:54 4,0 C 3,3 C 0,0 C 91 % 1013,2 hPa 0,0 l/m 0 min 2 min 0 W/m 12,9 km/h (3 Bft) 97,87 %
24.02.2022 20:56 4,0 C 3,3 C 0,0 C 91 % 1013,2 hPa 0,0 l/m 0 min 0 min 0 W/m 19,3 km/h (3 Bft) 95,74 %
24.02.2022 20:58 4,0 C 3,3 C 0,0 C 91 % 1013,3 hPa 0,0 l/m 0 min 0 min 0 W/m 19,3 km/h (3 Bft) 97,87 %
24.02.2022 21:00 3,9 C 3,3 C 0,0 C 91 % 1013,2 hPa 0,0 l/m 0 min 0 min 0 W/m 9,7 km/h (2 Bft) 97,87 %
24.02.2022 21:02 3,9 C 3,3 C 0,0 C 90 % 1013,2 hPa 0,0 l/m 0 min 0 min 0 W/m 16,1 km/h (3 Bft) 97,83 %
24.02.2022 21:04 3,9 C 3,3 C 0,0 C 90 % 1013,2 hPa 0,0 l/m 0 min 0 min 0 W/m 6,4 km/h (2 Bft) 97,87 %
24.02.2022 21:06 3,9 C 3,3 C 0,0 C 90 % 1013,4 hPa 0,0 l/m 0 min 0 min 0 W/m 16,1 km/h (3 Bft) 97,87 %
24.02.2022 21:08 3,9 C 3,3 C 0,0 C 90 % 1013,5 hPa 0,0 l/m 0 min 0 min 0 W/m 16,1 km/h (3 Bft) 97,87 %
24.02.2022 21:10 3,9 C 3,3 C 0,0 C 90 % 1013,5 hPa 0,0 l/m 0 min 0 min 0 W/m 16,1 km/h (3 Bft) 97,87 %
24.02.2022 21:12 3,8 C 3,3 C 0,0 C 90 % 1013,6 hPa 0,0 l/m 0 min 0 min 0 W/m 22,5 km/h (4 Bft) 97,83 %
24.02.2022 21:14 3,8 C 3,3 C 0,0 C 90 % 1013,5 hPa 0,0 l/m 0 min 0 min 0 W/m 12,9 km/h (3 Bft) 95,74 %
24.02.2022 21:16 3,8 C 3,3 C 0,0 C 90 % 1013,6 hPa 0,0 l/m 0 min 0 min 0 W/m 9,7 km/h (2 Bft) 95,74 %
24.02.2022 21:18 3,8 C 3,3 C 0,0 C 90 % 1013,7 hPa 0,0 l/m 0 min 0 min 0 W/m 12,9 km/h (3 Bft) 95,74 %
24.02.2022 21:20 3,7 C 3,3 C 0,0 C 90 % 1013,9 hPa 0,0 l/m 0 min 0 min 0 W/m 12,9 km/h (3 Bft) 97,87 %
24.02.2022 21:22 3,7 C 3,3 C 0,0 C 90 % 1013,9 hPa 0,0 l/m 0 min 0 min 0 W/m 16,1 km/h (3 Bft) 100,00 %
24.02.2022 21:24 3,7 C 3,3 C 0,0 C 90 % 1014,0 hPa 0,0 l/m 0 min 0 min 0 W/m 19,3 km/h (3 Bft) 100,00 %
24.02.2022 21:26 3,7 C 3,3 C 0,0 C 90 % 1014,0 hPa 0,0 l/m 0 min 0 min 0 W/m 25,7 km/h (4 Bft) 100,00 %
24.02.2022 21:28 3,7 C 3,3 C 0,0 C 89 % 1014,1 hPa 0,0 l/m 0 min 0 min 0 W/m 19,3 km/h (3 Bft) 100,00 %
24.02.2022 21:30 3,7 C 3,3 C -0,6 C 89 % 1014,1 hPa 0,0 l/m 0 min 0 min 0 W/m 12,9 km/h (3 Bft) 100,00 %
24.02.2022 21:32 3,6 C 3,3 C -0,6 C 89 % 1014,3 hPa 0,0 l/m 0 min 0 min 0 W/m 29,0 km/h (5 Bft) 100,00 %
24.02.2022 21:34 3,6 C 3,3 C -0,6 C 89 % 1014,4 hPa 0,0 l/m 0 min 0 min 0 W/m 22,5 km/h (4 Bft) 97,87 %
24.02.2022 21:36 3,7 C 3,3 C -0,6 C 89 % 1014,4 hPa 0,0 l/m 0 min 2 min 0 W/m 19,3 km/h (3 Bft) 100,00 %
24.02.2022 21:38 3,7 C 3,3 C 0,0 C 89 % 1014,4 hPa 0,0 l/m 0 min 2 min 0 W/m 25,7 km/h (4 Bft) 100,00 %
24.02.2022 21:40 3,6 C 3,3 C -0,6 C 89 % 1014,5 hPa 0,0 l/m 0 min 0 min 0 W/m 22,5 km/h (4 Bft) 100,00 %
24.02.2022 21:42 3,6 C 3,3 C -0,6 C 89 % 1014,7 hPa 0,0 l/m 0 min 2 min 0 W/m 38,6 km/h (5 Bft) 100,00 %
24.02.2022 21:44 3,6 C 2,8 C -0,6 C 89 % 1014,7 hPa 0,0 l/m 0 min 0 min 0 W/m 22,5 km/h (4 Bft) 95,74 %
24.02.2022 21:46 3,6 C 2,8 C -0,6 C 89 % 1014,7 hPa 0,0 l/m 0 min 0 min 0 W/m 32,2 km/h (5 Bft) 100,00 %
24.02.2022 21:48 3,6 C 2,8 C -0,6 C 89 % 1014,9 hPa 0,0 l/m 0 min 0 min 0 W/m 25,7 km/h (4 Bft) 100,00 %
24.02.2022 21:50 3,5 C 2,8 C -0,6 C 89 % 1014,8 hPa 0,0 l/m 0 min 2 min 0 W/m 29,0 km/h (5 Bft) 95,74 %
24.02.2022 21:52 3,4 C 2,8 C -0,6 C 89 % 1015,0 hPa 0,0 l/m 0 min 2 min 0 W/m 22,5 km/h (4 Bft) 97,87 %
24.02.2022 21:54 3,3 C 2,8 C -0,6 C 90 % 1015,2 hPa 0,0 l/m 0 min 2 min 0 W/m 22,5 km/h (4 Bft) 95,74 %
24.02.2022 21:56 3,2 C 2,2 C -0,6 C 90 % 1015,4 hPa 0,0 l/m 0 min 2 min 0 W/m 29,0 km/h (5 Bft) 95,74 %
24.02.2022 21:58 3,1 C 2,2 C -1,1 C 90 % 1015,6 hPa 0,2 l/m 0 min 2 min 0 W/m 38,6 km/h (5 Bft) 97,87 %
24.02.2022 22:00 2,8 C 1,7 C -1,1 C 90 % 1015,3 hPa 0,0 l/m 0 min 2 min 0 W/m 22,5 km/h (4 Bft) 95,65 %
24.02.2022 22:02 2,6 C 1,7 C -1,1 C 90 % 1015,3 hPa 0,0 l/m 0 min 2 min 0 W/m 9,7 km/h (2 Bft) 97,87 %
24.02.2022 22:04 2,6 C 1,7 C -1,1 C 91 % 1015,1 hPa 0,0 l/m 0 min 2 min 0 W/m 16,1 km/h (3 Bft) 97,87 %
24.02.2022 22:06 2,5 C 1,7 C -1,1 C 91 % 1015,1 hPa 0,0 l/m 0 min 2 min 0 W/m 9,7 km/h (2 Bft) 97,87 %
24.02.2022 22:08 2,5 C 1,7 C -1,1 C 91 % 1015,2 hPa 0,0 l/m 0 min 0 min 0 W/m 12,9 km/h (3 Bft) 98,15 %
24.02.2022 22:10 2,4 C 1,7 C -1,1 C 92 % 1015,1 hPa 0,0 l/m 0 min 0 min 0 W/m 9,7 km/h (2 Bft) 94,87 %
24.02.2022 22:12 2,5 C 1,7 C -1,1 C 92 % 1015,2 hPa 0,0 l/m 0 min 0 min 0 W/m 16,1 km/h (3 Bft) 97,83 %
24.02.2022 22:14 2,5 C 1,7 C -1,1 C 92 % 1015,2 hPa 0,0 l/m 0 min 0 min 0 W/m 16,1 km/h (3 Bft) 97,87 %
24.02.2022 22:16 2,5 C 1,7 C -1,1 C 92 % 1015,3 hPa 0,0 l/m 0 min 0 min 0 W/m 9,7 km/h (2 Bft) 97,87 %
24.02.2022 22:18 2,5 C 1,7 C -1,1 C 92 % 1015,3 hPa 0,0 l/m 0 min 0 min 0 W/m 6,4 km/h (2 Bft) 97,87 %
24.02.2022 22:20 2,4 C 1,7 C -1,1 C 93 % 1015,2 hPa 0,0 l/m 0 min 0 min 0 W/m 12,9 km/h (3 Bft) 97,87 %
24.02.2022 22:22 2,4 C 1,7 C -1,1 C 93 % 1015,3 hPa 0,0 l/m 0 min 0 min 0 W/m 12,9 km/h (3 Bft) 95,65 %
24.02.2022 22:24 2,4 C 1,7 C -1,1 C 93 % 1015,3 hPa 0,0 l/m 0 min 0 min 0 W/m 12,9 km/h (3 Bft) 95,74 %
24.02.2022 22:26 2,4 C 1,7 C -1,1 C 93 % 1015,4 hPa 0,0 l/m 0 min 0 min 0 W/m 12,9 km/h (3 Bft) 95,74 %
24.02.2022 22:28 2,4 C 1,7 C -1,1 C 93 % 1015,3 hPa 0,0 l/m 0 min 0 min 0 W/m 6,4 km/h (2 Bft) 97,87 %
24.02.2022 22:30 2,4 C 1,7 C -1,1 C 93 % 1015,3 hPa 0,0 l/m 0 min 0 min 0 W/m 6,4 km/h (2 Bft) 95,74 %
24.02.2022 22:32 2,4 C 1,7 C -1,1 C 93 % 1015,5 hPa 0,0 l/m 0 min 0 min 0 W/m 12,9 km/h (3 Bft) 93,62 %
24.02.2022 22:34 2,4 C 1,7 C -1,1 C 93 % 1015,6 hPa 0,0 l/m 0 min 0 min 0 W/m 16,1 km/h (3 Bft) 93,62 %
24.02.2022 22:36 2,4 C 1,7 C -1,1 C 93 % 1015,5 hPa 0,0 l/m 0 min 0 min 0 W/m 25,7 km/h (4 Bft) 97,83 %
24.02.2022 22:38 2,4 C 1,7 C -1,1 C 93 % 1015,6 hPa 0,0 l/m 0 min 0 min 0 W/m 9,7 km/h (2 Bft) 93,62 %
24.02.2022 22:40 2,4 C 1,7 C -1,1 C 93 % 1015,5 hPa 0,0 l/m 0 min 0 min 0 W/m 12,9 km/h (3 Bft) 100,00 %
24.02.2022 22:42 2,3 C 1,7 C -1,1 C 93 % 1015,5 hPa 0,0 l/m 0 min 0 min 0 W/m 12,9 km/h (3 Bft) 91,49 %
24.02.2022 22:44 2,3 C 1,7 C -1,1 C 94 % 1015,5 hPa 0,0 l/m 0 min 0 min 0 W/m 6,4 km/h (2 Bft) 95,74 %
24.02.2022 22:46 2,4 C 1,7 C -1,1 C 94 % 1015,7 hPa 0,0 l/m 0 min 0 min 0 W/m 12,9 km/h (3 Bft) 95,65 %
24.02.2022 22:48 2,3 C 1,7 C -1,1 C 94 % 1015,7 hPa 0,0 l/m 0 min 0 min 0 W/m 16,1 km/h (3 Bft) 95,74 %
24.02.2022 22:50 2,3 C 1,7 C -1,1 C 94 % 1015,8 hPa 0,0 l/m 0 min 0 min 0 W/m 6,4 km/h (2 Bft) 95,74 %
24.02.2022 22:52 2,3 C 1,7 C -1,1 C 94 % 1015,7 hPa 0,0 l/m 0 min 0 min 0 W/m 19,3 km/h (3 Bft) 93,62 %
24.02.2022 22:54 2,3 C 1,7 C -1,1 C 94 % 1015,8 hPa 0,0 l/m 0 min 0 min 0 W/m 16,1 km/h (3 Bft) 95,74 %
24.02.2022 22:56 2,3 C 1,7 C -1,1 C 94 % 1015,8 hPa 0,0 l/m 0 min 0 min 0 W/m 12,9 km/h (3 Bft) 95,74 %
24.02.2022 22:58 2,3 C 1,7 C -1,1 C 94 % 1015,8 hPa 0,0 l/m 0 min 0 min 0 W/m 12,9 km/h (3 Bft) 95,65 %
24.02.2022 23:00 2,3 C 1,7 C -1,1 C 94 % 1015,9 hPa 0,0 l/m 0 min 0 min 0 W/m 16,1 km/h (3 Bft) 97,87 %
24.02.2022 23:02 2,3 C 1,7 C -1,1 C 94 % 1015,9 hPa 0,0 l/m 0 min 0 min 0 W/m 9,7 km/h (2 Bft) 95,74 %
24.02.2022 23:04 2,2 C 1,7 C -1,1 C 94 % 1015,9 hPa 0,0 l/m 0 min 0 min 0 W/m 6,4 km/h (2 Bft) 97,87 %
24.02.2022 23:06 2,2 C 1,7 C -1,1 C 94 % 1015,9 hPa 0,0 l/m 0 min 0 min 0 W/m 12,9 km/h (3 Bft) 97,87 %
24.02.2022 23:08 2,2 C 1,7 C -1,1 C 94 % 1015,9 hPa 0,0 l/m 0 min 0 min 0 W/m 6,4 km/h (2 Bft) 97,87 %
24.02.2022 23:10 2,2 C 1,7 C -1,1 C 94 % 1015,9 hPa 0,0 l/m 0 min 0 min 0 W/m 12,9 km/h (3 Bft) 95,65 %
24.02.2022 23:12 2,2 C 1,7 C -1,1 C 94 % 1015,9 hPa 0,0 l/m 0 min 0 min 0 W/m 9,7 km/h (2 Bft) 97,87 %
24.02.2022 23:14 2,2 C 1,7 C -1,1 C 94 % 1016,0 hPa 0,0 l/m 0 min 0 min 0 W/m 6,4 km/h (2 Bft) 97,87 %
24.02.2022 23:16 2,2 C 1,7 C -1,1 C 94 % 1016,1 hPa 0,0 l/m 0 min 0 min 0 W/m 12,9 km/h (3 Bft) 97,87 %
24.02.2022 23:18 2,2 C 1,7 C -1,1 C 94 % 1016,0 hPa 0,0 l/m 0 min 0 min 0 W/m 12,9 km/h (3 Bft) 97,87 %
24.02.2022 23:20 2,2 C 1,7 C -1,1 C 94 % 1016,1 hPa 0,0 l/m 0 min 0 min 0 W/m 12,9 km/h (3 Bft) 95,74 %
24.02.2022 23:22 2,2 C 1,7 C -1,1 C 94 % 1016,1 hPa 0,0 l/m 0 min 0 min 0 W/m 16,1 km/h (3 Bft) 97,83 %
24.02.2022 23:24 2,2 C 1,7 C -1,1 C 94 % 1016,1 hPa 0,0 l/m 0 min 0 min 0 W/m 12,9 km/h (3 Bft) 100,00 %
24.02.2022 23:26 2,2 C 1,7 C -1,1 C 94 % 1016,2 hPa 0,0 l/m 0 min 0 min 0 W/m 9,7 km/h (2 Bft) 97,87 %
24.02.2022 23:28 2,2 C 1,7 C -1,1 C 94 % 1016,2 hPa 0,0 l/m 0 min 0 min 0 W/m 6,4 km/h (2 Bft) 100,00 %
24.02.2022 23:30 2,2 C 1,7 C -1,1 C 94 % 1016,2 hPa 0,0 l/m 0 min 0 min 0 W/m 12,9 km/h (3 Bft) 100,00 %
24.02.2022 23:32 2,1 C 1,7 C -1,1 C 94 % 1016,2 hPa 0,0 l/m 0 min 0 min 0 W/m 12,9 km/h (3 Bft) 100,00 %
24.02.2022 23:34 2,2 C 1,7 C -1,1 C 94 % 1016,2 hPa 0,0 l/m 0 min 0 min 0 W/m 16,1 km/h (3 Bft) 100,00 %
24.02.2022 23:36 2,2 C 1,7 C -1,1 C 94 % 1016,2 hPa 0,0 l/m 0 min 0 min 0 W/m 16,1 km/h (3 Bft) 100,00 %
24.02.2022 23:38 2,2 C 1,7 C -1,1 C 94 % 1016,3 hPa 0,0 l/m 0 min 0 min 0 W/m 9,7 km/h (2 Bft) 100,00 %
24.02.2022 23:40 2,2 C 1,7 C -1,1 C 94 % 1016,2 hPa 0,0 l/m 0 min 0 min 0 W/m 16,1 km/h (3 Bft) 100,00 %
24.02.2022 23:42 2,1 C 1,7 C -1,1 C 94 % 1016,3 hPa 0,0 l/m 0 min 0 min 0 W/m 6,4 km/h (2 Bft) 97,87 %
24.02.2022 23:44 2,1 C 1,7 C -1,1 C 94 % 1016,4 hPa 0,0 l/m 0 min 0 min 0 W/m 9,7 km/h (2 Bft) 97,87 %
24.02.2022 23:46 2,1 C 1,7 C -1,1 C 94 % 1016,5 hPa 0,0 l/m 0 min 0 min 0 W/m 12,9 km/h (3 Bft) 100,00 %
24.02.2022 23:48 2,1 C 1,7 C -1,1 C 94 % 1016,5 hPa 0,0 l/m 0 min 0 min 0 W/m 12,9 km/h (3 Bft) 100,00 %
24.02.2022 23:50 2,1 C 1,7 C -1,1 C 94 % 1016,6 hPa 0,0 l/m 0 min 0 min 0 W/m 12,9 km/h (3 Bft) 100,00 %
24.02.2022 23:52 2,1 C 1,7 C -1,1 C 94 % 1016,6 hPa 0,0 l/m 0 min 0 min 0 W/m 12,9 km/h (3 Bft) 95,74 %
24.02.2022 23:54 2,1 C 1,7 C -1,1 C 94 % 1016,7 hPa 0,0 l/m 0 min 0 min 0 W/m 19,3 km/h (3 Bft) 100,00 %
24.02.2022 23:56 2,1 C 1,1 C -1,1 C 94 % 1016,7 hPa 0,0 l/m 0 min 0 min 0 W/m 12,9 km/h (3 Bft) 100,00 %
24.02.2022 23:58 2,1 C 1,1 C -1,1 C 94 % 1016,7 hPa 0,0 l/m 0 min 0 min 0 W/m 9,7 km/h (2 Bft) 97,83 %
_ Min-Zeit 23:32 23:56 21:58 14:50 15:44 - - - - 05:30 16:40
Minimum _ 2,1 C 1,1 C -1,1 C 65 % 1005,4 hPa - - - - 3,2 km/h (1 Bft) 51,22 %
_ Max-Zeit 14:48 12:58 11:24 22:44 00:00 15:54 12:08 15:50 12:58 14:38 00:10
Maximum _ 12,1 C 16,7 C 8,3 C 94 % 1019,0 hPa 0,2 l/m 4 min 2 min 671 W/m 67,6 km/h
SW (8 Bft)
100,00 %
Durchschnitt _ 7,3 C 7,0 C 3,3 C 82 % 1012,6 hPa #2,8 l/m #2:48 h #2:40 h 152 W/m 20,0 km/h (4 Bft) 97,38 %
© 2022 W. Hausmann